Latitude: N 50° 09' 49" Longitude: W 05° 11' 53" Elevation: 168m ASL

There are 7 visitors online

Adverts

<- Previous Day | Today | Next Day ->

All Data for 23 July 2018

Time
A - D
Temp
A - D
Dew Point
A - D
Humidity
A - D
Pressure
A - D
Wind
A - D
Wind Dir Gust
A - D
Rain Rate
A - D
Rain Total
00:00 17.8 15.3 85 1018.9 2.2 SW 2.2 0.0 0.0
00:01 17.8 15.3 85 1018.9 0.7 S 2.2 0.0 0.0
00:02 17.8 15.3 85 1019.0 0.7 S 2.2 0.0 0.0
00:03 17.8 15.3 85 1019.1 0.7 S 2.2 0.0 0.0
00:04 17.8 15.3 85 1018.9 0.7 S 2.2 0.0 0.0
00:05 17.8 15.3 85 1019.1 0.7 S 2.2 0.0 0.0
00:06 17.8 15.3 85 1019.0 0.7 S 2.2 0.0 0.0
00:07 17.8 15.3 85 1019.0 0.7 S 2.2 0.0 0.0
00:08 17.8 15.3 85 1019.0 2.2 W 2.2 0.0 0.0
00:09 17.8 15.3 85 1019.0 3.1 W 3.1 0.0 0.0
00:10 17.7 15.2 85 1019.0 3.1 N 3.1 0.0 0.0
00:11 17.7 15.2 85 1018.9 3.1 W 3.1 0.0 0.0
00:12 17.7 15.2 85 1018.8 3.1 WNW 3.1 0.0 0.0
00:13 17.7 15.2 85 1018.8 3.1 W 3.1 0.0 0.0
00:14 17.7 15.2 85 1018.9 3.1 W 3.1 0.0 0.0
00:15 17.7 15.2 85 1019.1 3.1 N 3.1 0.0 0.0
00:16 17.7 15.2 85 1018.8 2.2 S 3.1 0.0 0.0
00:17 17.8 15.3 85 1018.8 3.8 W 3.8 0.0 0.0
00:18 17.7 15.2 85 1018.9 3.1 SW 3.8 0.0 0.0
00:19 17.7 15.2 85 1018.9 2.2 W 3.8 0.0 0.0
00:20 17.7 15.2 85 1018.9 2.2 W 3.8 0.0 0.0
00:21 17.7 15.2 85 1019.1 3.8 NW 3.8 0.0 0.0
00:22 17.7 15.2 85 1018.9 3.8 WNW 3.8 0.0 0.0
00:23 17.7 15.2 85 1018.9 2.2 N 3.8 0.0 0.0
00:24 17.7 15.2 85 1019.1 1.6 W 3.8 0.0 0.0
00:25 17.7 15.2 85 1019.1 1.6 NW 3.8 0.0 0.0
00:26 17.7 15.3 86 1019.0 1.6 NW 3.8 0.0 0.0
00:27 17.7 15.2 85 1019.1 2.2 NW 3.8 0.0 0.0
00:28 17.7 15.3 86 1019.0 1.6 W 3.8 0.0 0.0
00:29 17.7 15.3 86 1019.1 3.1 W 3.8 0.0 0.0
00:30 17.7 15.3 86 1019.1 3.1 SW 3.8 0.0 0.0
00:31 17.7 15.3 86 1019.1 2.2 SW 3.8 0.0 0.0
00:32 17.7 15.3 86 1019.1 2.2 SW 3.1 0.0 0.0
00:33 17.7 15.3 86 1019.1 3.1 SW 3.1 0.0 0.0
00:34 17.7 15.3 86 1019.0 1.6 SW 3.1 0.0 0.0
00:35 17.7 15.3 86 1019.0 1.6 SW 3.1 0.0 0.0
00:36 17.7 15.3 86 1018.9 1.6 SW 3.1 0.0 0.0
00:37 17.7 15.3 86 1019.1 1.6 W 3.1 0.0 0.0
00:38 17.6 15.2 86 1019.0 0.7 W 3.1 0.0 0.0
00:39 17.6 15.2 86 1019.0 0.7 W 3.1 0.0 0.0
00:40 17.6 15.2 86 1019.2 0.0 W 3.1 0.0 0.0
00:41 17.6 15.2 86 1018.9 1.6 W 3.1 0.0 0.0
00:42 17.6 15.2 86 1019.0 2.2 W 3.1 0.0 0.0
00:43 17.6 15.2 86 1019.1 1.6 W 3.1 0.0 0.0
00:44 17.6 15.2 86 1019.3 2.2 NW 2.2 0.0 0.0
00:45 17.6 15.2 86 1019.2 3.1 SW 3.1 0.0 0.0
00:46 17.6 15.2 86 1019.3 3.8 SW 3.8 0.0 0.0
00:47 17.6 15.2 86 1019.2 3.1 W 3.8 0.0 0.0
00:48 17.6 15.2 86 1019.2 1.6 W 3.8 0.0 0.0
00:49 17.6 15.2 86 1019.2 1.6 SW 3.8 0.0 0.0
00:50 17.5 15.1 86 1019.1 1.6 NW 3.8 0.0 0.0
00:51 17.5 15.1 86 1019.1 1.6 NW 3.8 0.0 0.0
00:52 17.5 15.1 86 1019.1 1.6 NNW 3.8 0.0 0.0
00:53 17.5 15.1 86 1019.1 0.7 NW 3.8 0.0 0.0
00:54 17.5 15.1 86 1019.2 1.6 SW 3.8 0.0 0.0
00:55 17.5 15.1 86 1019.1 0.7 SW 3.8 0.0 0.0
00:56 17.5 15.1 86 1019.1 0.7 SW 3.1 0.0 0.0
00:57 17.5 15.1 86 1019.2 1.6 S 3.1 0.0 0.0
00:58 17.5 15.1 86 1019.1 2.2 S 3.1 0.0 0.0
00:59 17.4 15.0 86 1019.1 1.6 S 3.1 0.0 0.0
01:00 17.4 15.0 86 1019.1 1.6 SW 3.1 0.0 0.0
01:01 17.4 15.0 86 1019.0 1.6 S 3.1 0.0 0.0
01:02 17.4 15.0 86 1019.0 1.6 SW 3.1 0.0 0.0
01:03 17.4 15.0 86 1018.9 1.6 SW 3.1 0.0 0.0
01:04 17.4 15.0 86 1018.9 1.6 SW 3.1 0.0 0.0
01:05 17.3 14.9 86 1019.0 1.6 SW 2.2 0.0 0.0
01:06 17.3 14.9 86 1019.1 1.6 SW 2.2 0.0 0.0
01:07 17.3 14.9 86 1019.0 1.6 SW 2.2 0.0 0.0
01:08 17.3 14.9 86 1019.0 1.6 SW 2.2 0.0 0.0
01:09 17.3 14.9 86 1018.9 0.7 SW 1.6 0.0 0.0
01:10 17.3 14.9 86 1019.1 0.0 SW 1.6 0.0 0.0
01:11 17.3 14.9 86 1018.9 0.0 SW 1.6 0.0 0.0
01:12 17.3 14.9 86 1019.1 0.0 SW 1.6 0.0 0.0
01:14 17.3 14.9 86 1018.9 0.0 SW 1.6 0.0 0.0
01:15 17.3 14.9 86 1019.0 0.0 SW 1.6 0.0 0.0
01:16 17.3 14.9 86 1018.9 0.7 SW 1.6 0.0 0.0
01:17 17.3 14.9 86 1019.0 1.6 SE 1.6 0.0 0.0
01:18 17.3 15.1 87 1018.9 0.0 WNW 1.6 0.0 0.0
01:19 17.3 15.1 87 1019.2 0.0 NW 1.6 0.0 0.0
01:20 17.3 15.1 87 1019.0 0.0 NW 1.6 0.0 0.0
01:21 17.3 15.1 87 1019.1 0.0 NW 1.6 0.0 0.0
01:22 17.3 15.1 87 1018.9 2.2 W 2.2 0.0 0.0
01:23 17.3 15.1 87 1018.9 2.2 W 2.2 0.0 0.0
01:24 17.3 15.1 87 1019.0 0.7 W 2.2 0.0 0.0
01:25 17.3 15.1 87 1019.0 0.7 W 2.2 0.0 0.0
01:26 17.3 15.1 87 1018.9 0.7 W 2.2 0.0 0.0
01:27 17.3 15.1 87 1019.0 1.6 NW 2.2 0.0 0.0
01:28 17.3 15.1 87 1018.9 2.2 W 2.2 0.0 0.0
01:29 17.3 15.1 87 1018.8 0.7 NW 2.2 0.0 0.0
01:30 17.3 15.1 87 1018.9 0.7 NW 2.2 0.0 0.0
01:31 17.3 15.1 87 1019.0 0.7 N 2.2 0.0 0.0
01:32 17.4 15.2 87 1018.9 0.0 NW 2.2 0.0 0.0
01:33 17.4 15.2 87 1018.9 0.0 NW 2.2 0.0 0.0
01:34 17.4 15.2 87 1018.9 0.0 NW 2.2 0.0 0.0
01:35 17.4 15.2 87 1018.9 0.0 NW 2.2 0.0 0.0
01:36 17.4 15.2 87 1018.8 0.0 NW 2.2 0.0 0.0
01:37 17.4 15.2 87 1018.9 0.0 NW 2.2 0.0 0.0
01:38 17.4 15.2 87 1019.0 1.6 NW 1.6 0.0 0.0
01:39 17.4 15.2 87 1018.8 0.7 NW 1.6 0.0 0.0
01:40 17.4 15.2 87 1018.9 0.7 NW 1.6 0.0 0.0
01:41 17.4 15.2 87 1018.8 0.0 NW 1.6 0.0 0.0
01:42 17.4 15.2 87 1018.9 0.0 NW 1.6 0.0 0.0
01:43 17.4 15.2 87 1018.9 0.7 NW 1.6 0.0 0.0
01:44 17.4 15.2 87 1018.8 0.7 NW 1.6 0.0 0.0
01:45 17.4 15.2 87 1018.8 2.2 N 2.2 0.0 0.0
01:46 17.4 15.2 87 1018.7 2.2 NW 2.2 0.0 0.0
01:47 17.4 15.2 87 1018.8 2.2 NW 2.2 0.0 0.0
01:48 17.4 15.2 87 1018.9 1.6 NW 2.2 0.0 0.0
01:49 17.4 15.2 87 1018.8 0.0 NW 2.2 0.0 0.0
01:50 17.4 15.2 87 1018.8 0.7 NW 2.2 0.0 0.0
01:51 17.4 15.2 87 1018.8 0.0 NW 2.2 0.0 0.0
01:52 17.4 15.2 87 1018.8 0.7 NW 2.2 0.0 0.0
01:53 17.4 15.2 87 1018.8 0.7 NW 2.2 0.0 0.0
01:54 17.4 15.2 87 1018.8 0.7 NW 2.2 0.0 0.0
01:55 17.4 15.2 87 1018.8 0.0 NW 2.2 0.0 0.0
01:56 17.4 15.2 87 1018.8 0.0 NW 2.2 0.0 0.0
01:57 17.3 15.3 88 1018.8 0.0 NW 1.6 0.0 0.0
01:58 17.3 15.1 87 1018.9 0.7 NW 1.6 0.0 0.0
01:59 17.4 15.2 87 1018.8 0.7 NW 1.6 0.0 0.0
02:00 17.4 15.2 87 1018.8 0.7 NW 1.6 0.0 0.0
02:01 17.3 15.1 87 1018.7 0.0 NW 1.6 0.0 0.0
02:02 17.3 15.1 87 1018.8 0.0 NW 1.6 0.0 0.0
02:03 17.3 15.1 87 1018.9 0.0 NW 1.6 0.0 0.0
02:04 17.3 15.1 87 1018.9 0.0 NW 1.6 0.0 0.0
02:05 17.3 15.1 87 1018.7 0.0 NW 0.7 0.0 0.0
02:06 17.3 15.1 87 1018.6 0.0 NW 0.7 0.0 0.0
02:07 17.3 15.1 87 1018.7 0.0 NW 0.7 0.0 0.0
02:08 17.3 15.1 87 1018.7 0.0 NW 0.7 0.0 0.0
02:09 17.3 15.1 87 1018.7 0.0 NW 0.7 0.0 0.0
02:10 17.3 15.1 87 1018.8 0.0 NW 0.0 0.0 0.0
02:11 17.3 15.1 87 1018.7 0.0 NW 0.0 0.0 0.0
02:12 17.3 15.1 87 1018.7 0.0 NW 0.0 0.0 0.0
02:13 17.2 15.0 87 1018.7 0.0 NW 0.0 0.0 0.0
02:14 17.3 15.1 87 1018.6 0.0 NW 0.0 0.0 0.0
02:15 17.2 15.0 87 1018.5 0.0 NW 0.0 0.0 0.0
02:16 17.2 15.0 87 1018.6 0.0 NW 0.0 0.0 0.0
02:17 17.2 15.0 87 1018.6 0.0 NW 0.0 0.0 0.0
02:18 17.2 15.0 87 1018.8 0.0 NW 0.0 0.0 0.0
02:19 17.2 15.0 87 1018.8 0.0 NW 0.0 0.0 0.0
02:20 17.2 15.0 87 1018.8 0.0 NW 0.0 0.0 0.0
02:21 17.2 15.0 87 1018.8 0.0 NW 0.0 0.0 0.0
02:22 17.2 15.0 87 1018.8 0.0 NW 0.0 0.0 0.0
02:23 17.2 15.0 87 1018.7 0.7 N 0.7 0.0 0.0
02:24 17.2 15.0 87 1018.8 0.7 N 0.7 0.0 0.0
02:25 17.2 15.0 87 1018.8 0.0 N 0.7 0.0 0.0
02:26 17.2 15.0 87 1018.8 0.0 N 0.7 0.0 0.0
02:27 17.1 14.9 87 1018.8 0.7 NE 0.7 0.0 0.0
02:28 17.1 14.9 87 1018.7 0.0 NE 0.7 0.0 0.0
02:29 17.1 14.9 87 1018.8 0.0 NE 0.7 0.0 0.0
02:30 17.1 14.9 87 1018.7 0.0 E 0.7 0.0 0.0
02:31 17.1 14.9 87 1018.6 0.0 E 0.7 0.0 0.0
02:32 17.1 14.9 87 1018.8 0.7 E 0.7 0.0 0.0
02:33 17.1 14.9 87 1018.7 0.0 E 0.7 0.0 0.0
02:34 17.0 14.8 87 1018.7 0.0 E 0.7 0.0 0.0
02:35 17.0 14.8 87 1018.7 0.0 E 0.7 0.0 0.0
02:36 17.0 14.8 87 1018.6 0.0 E 0.7 0.0 0.0
02:37 17.0 14.8 87 1018.8 0.0 E 0.7 0.0 0.0
02:38 17.0 14.8 87 1018.8 0.0 E 0.7 0.0 0.0
02:39 17.0 14.8 87 1018.6 0.0 E 0.7 0.0 0.0
02:40 17.0 14.8 87 1018.6 0.0 E 0.7 0.0 0.0
02:41 16.9 14.7 87 1018.8 0.0 E 0.7 0.0 0.0
02:42 16.9 14.7 87 1018.6 0.0 E 0.7 0.0 0.0
02:43 16.9 14.7 87 1018.6 0.0 E 0.0 0.0 0.0
02:44 16.9 14.7 87 1018.6 0.0 E 0.0 0.0 0.0
02:45 16.9 14.7 87 1018.6 0.0 E 0.0 0.0 0.0
02:46 16.8 14.6 87 1018.7 0.0 E 0.0 0.0 0.0
02:47 16.8 14.6 87 1018.8 0.0 E 0.0 0.0 0.0
02:48 16.8 14.6 87 1018.7 0.0 E 0.0 0.0 0.0
02:49 16.8 14.6 87 1018.7 0.0 E 0.0 0.0 0.0
02:50 16.7 14.5 87 1018.7 0.0 E 0.0 0.0 0.0
02:51 16.7 14.5 87 1018.7 0.0 E 0.0 0.0 0.0
02:52 16.7 14.5 87 1018.7 0.0 E 0.0 0.0 0.0
02:53 16.7 14.5 87 1018.7 0.0 E 0.0 0.0 0.0
02:54 16.7 14.5 87 1018.7 0.0 E 0.0 0.0 0.0
02:55 16.7 14.5 87 1018.6 0.0 E 0.0 0.0 0.0
02:56 16.7 14.5 87 1018.7 0.0 E 0.0 0.0 0.0
02:57 16.7 14.5 87 1018.7 0.0 E 0.0 0.0 0.0
02:58 16.7 14.5 87 1018.5 0.0 E 0.0 0.0 0.0
02:59 16.7 14.5 87 1018.7 0.0 E 0.0 0.0 0.0
03:00 16.7 14.5 87 1018.6 0.0 E 0.0 0.0 0.0
03:01 16.7 14.5 87 1018.6 0.0 E 0.0 0.0 0.0
03:02 16.7 14.5 87 1018.6 0.0 E 0.0 0.0 0.0
03:03 16.7 14.5 87 1018.7 0.0 E 0.0 0.0 0.0
03:04 16.7 14.5 87 1018.6 0.0 E 0.0 0.0 0.0
03:05 16.7 14.5 87 1018.6 0.0 E 0.0 0.0 0.0
03:06 16.6 14.4 87 1018.5 0.0 E 0.0 0.0 0.0
03:07 16.6 14.4 87 1018.5 0.0 E 0.0 0.0 0.0
03:08 16.6 14.4 87 1018.5 0.0 E 0.0 0.0 0.0
03:09 16.6 14.4 87 1018.6 0.0 E 0.0 0.0 0.0
03:10 16.6 14.4 87 1018.6 0.0 E 0.0 0.0 0.0
03:11 16.6 14.4 87 1018.6 0.0 E 0.0 0.0 0.0
03:12 16.6 14.6 88 1018.7 0.0 E 0.0 0.0 0.0
03:13 16.6 14.6 88 1018.6 0.0 E 0.0 0.0 0.0
03:14 16.6 14.6 88 1018.5 0.0 E 0.0 0.0 0.0
03:15 16.6 14.6 88 1018.6 0.0 E 0.0 0.0 0.0
03:16 16.6 14.6 88 1018.6 0.0 E 0.0 0.0 0.0
03:17 16.6 14.6 88 1018.5 0.0 E 0.0 0.0 0.0
03:18 16.6 14.6 88 1018.6 0.0 E 0.0 0.0 0.0
03:19 16.6 14.6 88 1018.4 0.0 E 0.0 0.0 0.0
03:20 16.6 14.6 88 1018.5 0.0 E 0.0 0.0 0.0
03:21 16.6 14.6 88 1018.5 0.7 E 0.7 0.0 0.0
03:22 16.6 14.6 88 1018.6 0.0 E 0.7 0.0 0.0
03:23 16.6 14.6 88 1018.7 0.0 E 0.7 0.0 0.0
03:24 16.6 14.6 88 1018.5 0.0 E 0.7 0.0 0.0
03:25 16.6 14.6 88 1018.4 0.0 E 0.7 0.0 0.0
03:26 16.6 14.6 88 1018.6 0.0 E 0.7 0.0 0.0
03:27 16.7 14.7 88 1018.6 0.0 E 0.7 0.0 0.0
03:28 16.7 14.7 88 1018.6 0.0 E 0.7 0.0 0.0
03:29 16.7 14.7 88 1018.3 0.0 E 0.7 0.0 0.0
03:30 16.7 14.7 88 1018.5 0.0 E 0.7 0.0 0.0
03:31 16.7 14.7 88 1018.3 0.0 E 0.0 0.0 0.0
03:32 16.7 14.7 88 1018.5 0.0 E 0.0 0.0 0.0
03:33 16.7 14.7 88 1018.6 0.0 E 0.0 0.0 0.0
03:34 16.7 14.9 89 1018.4 0.0 E 0.0 0.0 0.0
03:35 16.7 14.9 89 1018.4 0.0 E 0.0 0.0 0.0
03:36 16.7 14.9 89 1018.6 0.0 E 0.0 0.0 0.0
03:37 16.7 14.9 89 1018.6 0.0 E 0.0 0.0 0.0
03:38 16.7 14.9 89 1018.6 0.0 E 0.0 0.0 0.0
03:39 16.8 15.0 89 1018.6 0.0 E 0.0 0.0 0.0
03:40 16.8 15.0 89 1018.7 0.0 E 0.0 0.0 0.0
03:41 16.8 15.0 89 1018.7 0.0 E 0.0 0.0 0.0
03:42 16.8 15.0 89 1018.6 0.0 E 0.0 0.0 0.0
03:43 16.8 15.0 89 1018.7 0.0 E 0.0 0.0 0.0
03:44 16.8 15.0 89 1018.7 0.0 E 0.0 0.0 0.0
03:45 16.8 15.0 89 1018.5 0.0 E 0.0 0.0 0.0
03:46 16.8 15.0 89 1018.6 0.0 E 0.0 0.0 0.0
03:49 16.8 15.0 89 1018.5 1.6 E 1.6 0.0 0.0
03:50 16.8 15.0 89 1018.7 1.6 E 1.6 0.0 0.0
03:51 16.8 15.0 89 1018.7 0.7 E 1.6 0.0 0.0
03:52 16.8 15.0 89 1018.7 0.7 E 1.6 0.0 0.0
03:53 16.8 15.0 89 1018.7 0.0 E 1.6 0.0 0.0
03:54 16.8 15.2 90 1018.6 0.0 E 1.6 0.0 0.0
03:55 16.8 15.2 90 1018.5 0.7 E 1.6 0.0 0.0
03:56 16.8 15.2 90 1018.6 0.7 N 1.6 0.0 0.0
03:57 16.8 15.2 90 1018.6 0.0 N 1.6 0.0 0.0
03:58 16.8 15.2 90 1018.8 0.0 NW 1.6 0.0 0.0
03:59 16.8 15.2 90 1018.7 1.6 NW 1.6 0.0 0.0
04:00 16.8 15.2 90 1018.7 0.7 NW 1.6 0.0 0.0
04:01 16.8 15.2 90 1018.7 0.7 NW 1.6 0.0 0.0
04:02 16.8 15.2 90 1018.7 0.7 NW 1.6 0.0 0.0
04:03 16.8 15.2 90 1018.7 0.7 NW 1.6 0.0 0.0
04:04 16.8 15.2 90 1018.6 0.7 NW 1.6 0.0 0.0
04:05 16.8 15.2 90 1018.6 0.7 NW 1.6 0.0 0.0
04:06 16.9 15.3 90 1018.6 1.6 W 1.6 0.0 0.0
04:07 16.9 15.3 90 1018.6 0.7 W 1.6 0.0 0.0
04:08 16.9 15.3 90 1018.6 1.6 W 1.6 0.0 0.0
04:09 16.9 15.3 90 1018.5 0.7 W 1.6 0.0 0.0
04:10 16.9 15.3 90 1018.6 0.7 W 1.6 0.0 0.0
04:11 16.9 15.3 90 1018.7 1.6 SW 1.6 0.0 0.0
04:13 16.9 15.3 90 1018.5 0.0 W 1.6 0.0 0.0
04:14 16.9 15.3 90 1018.6 0.7 W 1.6 0.0 0.0
04:15 16.9 15.3 90 1018.5 1.6 W 1.6 0.0 0.0
04:16 16.9 15.3 90 1018.5 0.7 W 1.6 0.0 0.0
04:17 16.9 15.3 90 1018.5 1.6 SW 1.6 0.0 0.0
04:18 16.9 15.3 90 1018.5 3.1 W 3.1 0.0 0.0
04:19 16.9 15.3 90 1018.6 3.1 SW 3.1 0.0 0.0
04:20 16.9 15.3 90 1018.6 3.8 SW 3.8 0.0 0.0
04:21 16.9 15.3 90 1018.7 3.1 SW 3.8 0.0 0.0
04:22 16.9 15.3 90 1018.6 3.8 SW 3.8 0.0 0.0
04:23 16.9 15.3 90 1018.6 3.8 SW 3.8 0.0 0.0
04:24 16.9 15.3 90 1018.6 4.5 S 4.5 0.0 0.0
04:25 16.9 15.3 90 1018.6 5.4 SW 5.4 0.0 0.0
04:26 16.9 15.3 90 1018.6 4.5 W 5.4 0.0 0.0
04:27 16.9 15.4 91 1018.7 4.5 W 5.4 0.0 0.0
04:28 16.9 15.4 91 1018.6 3.1 SW 5.4 0.0 0.0
04:29 16.9 15.4 91 1018.7 3.8 S 5.4 0.0 0.0
04:30 16.9 15.4 91 1018.6 3.8 S 5.4 0.0 0.0
04:32 17.0 15.5 91 1018.7 5.4 S 5.4 0.0 0.0
04:33 17.0 15.5 91 1018.6 4.5 SW 5.4 0.0 0.0
04:34 17.0 15.5 91 1018.6 3.8 W 5.4 0.0 0.0
04:35 17.0 15.5 91 1018.7 3.1 SW 5.4 0.0 0.0
04:36 17.0 15.5 91 1018.6 3.1 W 5.4 0.0 0.0
04:37 17.0 15.5 91 1018.5 4.5 W 5.4 0.0 0.0
04:38 17.0 15.5 91 1018.5 3.8 SW 5.4 0.0 0.0
04:39 17.0 15.5 91 1018.8 3.1 WNW 5.4 0.0 0.0
04:40 17.0 15.5 91 1018.8 3.1 WNW 5.4 0.0 0.0
04:41 17.0 15.5 91 1018.6 5.4 SW 5.4 0.0 0.0
04:42 17.0 15.5 91 1018.5 3.8 SW 5.4 0.0 0.0
04:43 17.0 15.5 91 1018.7 3.8 SW 5.4 0.0 0.0
04:44 17.0 15.5 91 1018.7 2.2 SW 5.4 0.0 0.0
04:45 17.0 15.5 91 1018.7 3.8 SW 5.4 0.0 0.0
04:46 17.0 15.5 91 1018.6 6.0 SW 6.0 0.0 0.0
04:47 17.0 15.5 91 1018.7 5.4 NW 6.0 0.0 0.0
04:48 17.0 15.5 91 1018.7 3.8 S 6.0 0.0 0.0
04:49 17.0 15.5 91 1018.7 4.5 S 6.0 0.0 0.0
04:51 17.0 15.7 92 1018.7 4.5 SW 6.0 0.0 0.0
04:52 17.0 15.7 92 1018.7 6.0 SW 6.0 0.0 0.0
04:53 17.0 15.7 92 1018.7 5.4 S 6.0 0.0 0.0
04:54 17.0 15.7 92 1018.6 6.0 W 6.0 0.0 0.0
04:55 17.0 15.7 92 1018.7 3.8 S 6.0 0.0 0.0
04:56 17.0 15.7 92 1018.6 3.1 S 6.0 0.0 0.0
04:57 17.0 15.7 92 1018.6 3.8 S 6.0 0.0 0.0
04:58 17.0 15.7 92 1018.6 3.1 W 6.0 0.0 0.0
04:59 17.0 15.7 92 1018.7 3.1 SW 6.0 0.0 0.0
05:00 17.0 15.7 92 1018.6 2.2 W 6.0 0.0 0.0
05:01 17.0 15.7 92 1018.7 3.1 W 6.0 0.0 0.0
05:02 17.0 15.7 92 1018.6 3.1 W 6.0 0.0 0.0
05:03 17.0 15.7 92 1018.7 3.8 NW 6.0 0.0 0.0
05:04 17.0 15.7 92 1018.5 6.0 W 6.0 0.0 0.0
05:05 17.0 15.7 92 1018.7 3.1 SW 6.0 0.0 0.0
05:06 17.0 15.7 92 1018.5 3.1 W 6.0 0.0 0.0
05:07 17.0 15.7 92 1018.6 2.2 SW 6.0 0.0 0.0
05:08 17.0 15.7 92 1018.4 3.1 W 6.0 0.0 0.0
05:09 17.0 15.7 92 1018.6 2.2 SW 6.0 0.0 0.0
05:10 17.1 15.8 92 1018.7 2.2 SW 6.0 0.0 0.0
05:11 17.0 15.7 92 1018.7 2.2 SW 6.0 0.0 0.0
05:12 17.1 15.8 92 1018.5 2.2 W 6.0 0.0 0.0
05:13 17.1 15.8 92 1018.5 1.6 W 6.0 0.0 0.0
05:14 17.1 15.8 92 1018.5 1.6 W 6.0 0.0 0.0
05:15 17.1 15.8 92 1018.5 3.8 W 3.8 0.0 0.0
05:16 17.1 15.8 92 1018.4 3.1 WSW 3.8 0.0 0.0
05:17 17.1 15.8 92 1018.4 3.1 W 3.8 0.0 0.0
05:18 17.1 15.8 92 1018.4 3.1 SW 3.8 0.0 0.0
05:19 17.1 15.8 92 1018.4 3.1 W 3.8 0.0 0.0
05:20 17.1 15.8 92 1018.5 4.5 SW 4.5 0.0 0.0
05:21 17.1 15.8 92 1018.4 3.8 W 4.5 0.0 0.0
05:22 17.1 16.0 93 1018.5 3.8 S 5.4 0.0 0.0
05:23 17.1 16.0 93 1018.5 6.0 SW 6.0 0.0 0.0
05:24 17.1 16.0 93 1018.5 4.5 SW 6.0 0.0 0.0
05:25 17.1 16.0 93 1018.6 3.8 SW 6.0 0.0 0.0
05:26 17.1 16.0 93 1018.6 3.8 SW 6.0 0.0 0.0
05:27 17.1 16.0 93 1018.5 3.8 S 6.0 0.0 0.0
05:28 17.1 16.0 93 1018.4 4.5 S 6.0 0.0 0.0
05:29 17.1 16.0 93 1018.4 3.1 S 6.0 0.0 0.0
05:30 17.1 16.0 93 1018.4 3.8 SW 6.0 0.0 0.0
05:31 17.1 16.0 93 1018.5 3.8 S 6.0 0.0 0.0
05:32 17.1 16.0 93 1018.4 3.1 S 6.0 0.0 0.0
05:33 17.1 16.0 93 1018.5 3.8 W 6.0 0.0 0.0
05:34 17.1 16.0 93 1018.3 4.5 SW 4.5 0.0 0.0
05:35 17.1 16.0 93 1018.4 3.8 SW 4.5 0.0 0.0
05:37 17.1 16.0 93 1018.4 4.5 SW 5.4 0.0 0.0
05:38 17.1 16.0 93 1018.5 4.5 SW 5.4 0.0 0.0
05:39 17.1 16.0 93 1018.5 3.8 SW 5.4 0.0 0.0
05:40 17.1 16.0 93 1018.4 3.1 W 5.4 0.0 0.0
05:41 17.0 15.9 93 1018.4 3.1 W 5.4 0.0 0.0
05:42 17.0 15.9 93 1018.4 3.1 W 5.4 0.0 0.0
05:43 17.0 15.9 93 1018.4 3.1 S 5.4 0.0 0.0
05:44 17.0 15.9 93 1018.3 2.2 SW 5.4 0.0 0.0
05:45 17.0 15.9 93 1018.3 2.2 SW 5.4 0.0 0.0
05:46 17.0 15.9 93 1018.4 2.2 SW 4.5 0.0 0.0
05:47 17.0 15.9 93 1018.4 2.2 SW 4.5 0.0 0.0
05:48 17.0 15.9 93 1018.4 1.6 W 4.5 0.0 0.0
05:49 17.0 15.9 93 1018.3 1.6 W 3.8 0.0 0.0
05:50 17.0 15.9 93 1018.4 3.1 SW 3.1 0.0 0.0
05:51 17.0 15.9 93 1018.4 3.8 SW 3.8 0.0 0.0
05:52 17.0 15.9 93 1018.4 3.8 SW 3.8 0.0 0.0
05:53 17.0 15.9 93 1018.3 2.2 W 3.8 0.0 0.0
05:54 17.0 15.9 93 1018.4 3.8 SW 3.8 0.0 0.0
05:55 17.0 15.9 93 1018.4 3.1 SW 3.8 0.0 0.0
05:56 17.0 15.9 93 1018.3 2.2 W 3.8 0.0 0.0
05:57 17.0 15.9 93 1018.4 3.1 SW 3.8 0.0 0.0
05:58 17.0 15.9 93 1018.4 2.2 SW 3.8 0.0 0.0
05:59 17.0 15.9 93 1018.5 3.8 SW 3.8 0.0 0.0
06:00 17.0 15.9 93 1018.3 2.2 SE 3.8 0.0 0.0
06:01 17.0 15.9 93 1018.4 1.6 SW 3.8 0.0 0.0
06:02 17.0 15.9 93 1018.5 1.6 SW 3.8 0.0 0.0
06:03 17.0 15.9 93 1018.5 3.1 SW 3.8 0.0 0.0
06:05 17.0 15.9 93 1018.5 3.8 W 4.5 0.0 0.0
06:06 17.0 15.9 93 1018.6 3.8 SW 4.5 0.0 0.0
06:07 17.0 15.9 93 1018.5 3.8 W 4.5 0.0 0.0
06:08 17.0 15.9 93 1018.5 3.1 W 4.5 0.0 0.0
06:09 17.0 15.9 93 1018.4 3.8 SW 4.5 0.0 0.0
06:10 17.0 15.9 93 1018.5 3.1 NW 4.5 0.0 0.0
06:11 17.0 15.9 93 1018.5 3.1 NW 4.5 0.0 0.0
06:12 17.0 15.9 93 1018.5 5.4 W 5.4 0.0 0.0
06:13 17.0 15.9 93 1018.3 3.8 SW 5.4 0.0 0.0
06:14 17.0 15.9 93 1018.5 5.4 WSW 5.4 0.0 0.0
06:15 16.9 15.8 93 1018.5 5.4 W 5.4 0.0 0.0
06:16 16.9 15.8 93 1018.6 3.8 W 5.4 0.0 0.0
06:17 16.9 15.8 93 1018.6 4.5 SW 5.4 0.0 0.0
06:19 16.9 15.8 93 1018.6 4.5 SW 5.4 0.0 0.0
06:20 16.9 15.8 93 1018.6 4.5 SW 5.4 0.0 0.0
06:21 16.9 15.8 93 1018.7 2.2 WSW 5.4 0.0 0.0
06:22 16.9 15.8 93 1018.5 3.1 WSW 5.4 0.0 0.0
06:23 16.9 15.8 93 1018.6 4.5 SW 5.4 0.0 0.0
06:24 16.9 15.8 93 1018.6 3.1 SW 5.4 0.0 0.0
06:25 16.9 15.8 93 1018.5 4.5 W 5.4 0.0 0.0
06:26 16.9 15.8 93 1018.5 4.5 W 5.4 0.0 0.0
06:27 16.9 15.8 93 1018.5 3.8 SW 5.4 0.0 0.0
06:28 16.9 15.8 93 1018.5 3.1 WSW 5.4 0.0 0.0
06:29 16.9 15.8 93 1018.7 4.5 SW 4.5 0.0 0.0
06:30 16.9 15.8 93 1018.7 6.9 W 6.9 0.0 0.0
06:31 16.9 15.8 93 1018.6 6.0 W 6.9 0.0 0.0
06:32 16.9 15.6 92 1018.7 4.5 SSW 6.9 0.0 0.0
06:34 16.9 15.6 92 1018.7 5.4 W 6.9 0.0 0.0
06:35 16.9 15.6 92 1018.7 5.4 SSW 6.9 0.0 0.0
06:36 16.9 15.6 92 1018.6 5.4 SW 6.9 0.0 0.0
06:37 16.9 15.6 92 1018.5 3.8 S 6.9 0.0 0.0
06:38 16.9 15.6 92 1018.5 3.8 SW 6.9 0.0 0.0
06:39 16.9 15.6 92 1018.5 3.8 SW 6.9 0.0 0.0
06:40 16.9 15.6 92 1018.7 3.1 S 6.9 0.0 0.0
06:41 16.9 15.6 92 1018.6 3.8 S 5.4 0.0 0.0
06:42 16.9 15.8 93 1018.7 5.4 SW 5.4 0.0 0.0
06:43 16.9 15.6 92 1018.6 3.8 SE 5.4 0.0 0.0
06:44 16.9 15.6 92 1018.5 3.1 SW 5.4 0.0 0.0
06:45 16.9 15.6 92 1018.7 3.8 SW 5.4 0.0 0.0
06:46 16.9 15.6 92 1018.5 4.5 S 5.4 0.0 0.0
06:48 16.9 15.6 92 1018.5 2.2 S 5.4 0.0 0.0
06:49 16.9 15.6 92 1018.5 2.2 E 5.4 0.0 0.0
06:50 16.9 15.6 92 1018.6 3.1 SW 5.4 0.0 0.0
06:51 16.9 15.6 92 1018.5 3.1 S 5.4 0.0 0.0
06:52 16.9 15.6 92 1018.5 2.2 W 4.5 0.0 0.0
06:53 16.9 15.6 92 1018.5 2.2 SW 4.5 0.0 0.0
06:54 16.9 15.6 92 1018.5 2.2 SW 4.5 0.0 0.0
06:55 16.9 15.6 92 1018.4 3.1 S 4.5 0.0 0.0
06:56 16.9 15.8 93 1018.6 2.2 SW 4.5 0.0 0.0
06:57 16.9 15.6 92 1018.5 3.8 S 3.8 0.0 0.0
06:58 16.9 15.8 93 1018.5 3.1 SSW 3.8 0.0 0.0
06:59 16.9 15.6 92 1018.5 2.2 SW 3.8 0.0 0.0
07:00 16.9 15.8 93 1018.6 2.2 SW 3.8 0.0 0.0
07:01 16.9 15.6 92 1018.4 1.6 NW 3.8 0.0 0.0
07:02 16.9 15.6 92 1018.6 1.6 NW 3.8 0.0 0.0
07:03 16.9 15.6 92 1018.5 3.1 SW 3.8 0.0 0.0
07:05 16.9 15.6 92 1018.5 3.1 SW 3.8 0.0 0.0
07:06 16.9 15.8 93 1018.5 2.2 SE 3.8 0.0 0.0
07:07 16.9 15.8 93 1018.6 3.8 S 3.8 0.0 0.0
07:08 16.9 15.8 93 1018.4 3.8 SW 3.8 0.0 0.0
07:09 16.9 15.8 93 1018.6 3.8 S 3.8 0.0 0.0
07:10 16.9 15.8 93 1018.6 1.6 S 3.8 0.0 0.0
07:11 16.9 15.8 93 1018.6 1.6 S 3.8 0.0 0.0
07:12 16.9 15.8 93 1018.5 2.2 SE 3.8 0.0 0.0
07:13 16.9 15.8 93 1018.5 2.2 WSW 3.8 0.0 0.0
07:14 17.0 15.9 93 1018.7 2.2 S 3.8 0.0 0.0
07:15 17.0 15.9 93 1018.6 2.2 SSW 3.8 0.0 0.0
07:16 17.0 15.9 93 1018.7 2.2 SSE 3.8 0.0 0.0
07:17 17.0 15.9 93 1018.7 2.2 S 3.8 0.0 0.0
07:19 17.0 15.9 93 1018.4 2.2 SW 3.1 0.0 0.0
07:20 17.0 15.9 93 1018.6 3.8 SW 3.8 0.0 0.0
07:21 17.0 15.9 93 1018.5 3.1 SW 3.8 0.0 0.0
07:22 17.0 15.9 93 1018.6 2.2 S 3.8 0.0 0.0
07:23 17.0 15.9 93 1018.6 1.6 S 3.8 0.0 0.0
07:24 17.0 15.9 93 1018.5 3.1 S 3.8 0.0 0.0
07:25 17.0 15.9 93 1018.5 2.2 S 3.8 0.0 0.0
07:26 17.0 15.9 93 1018.6 3.1 S 3.8 0.0 0.0
07:27 17.0 15.9 93 1018.6 3.1 SW 3.8 0.0 0.0
07:28 17.1 16.0 93 1018.5 2.2 S 3.8 0.0 0.0
07:29 17.0 15.9 93 1018.5 3.1 SW 3.8 0.0 0.0
07:30 17.1 16.0 93 1018.4 3.1 S 3.8 0.0 0.0
07:31 17.1 16.0 93 1018.5 3.8 S 3.8 0.0 0.0
07:32 17.1 16.0 93 1018.6 3.1 S 3.8 0.0 0.0
07:34 17.1 16.0 93 1018.4 2.2 SW 3.8 0.0 0.0
07:35 17.1 16.0 93 1018.4 2.2 W 3.8 0.0 0.0
07:36 17.1 16.0 93 1018.6 1.6 W 3.8 0.0 0.0
07:37 17.1 16.0 93 1018.6 2.2 SE 3.8 0.0 0.0
07:38 17.1 16.0 93 1018.5 1.6 SE 3.8 0.0 0.0
07:39 17.1 16.0 93 1018.5 1.6 SE 3.8 0.0 0.0
07:40 17.1 16.0 93 1018.5 1.6 SE 3.8 0.0 0.0
07:41 17.2 16.1 93 1018.5 0.7 S 3.1 0.0 0.0
07:42 17.2 16.1 93 1018.5 0.7 NW 3.1 0.0 0.0
07:43 17.2 16.1 93 1018.6 0.0 NW 2.2 0.0 0.0
07:44 17.2 16.1 93 1018.3 0.0 NW 2.2 0.0 0.0
07:45 17.2 16.1 93 1018.5 0.0 NW 2.2 0.0 0.0
07:46 17.2 16.1 93 1018.6 0.0 W 2.2 0.0 0.0
07:47 17.2 16.1 93 1018.3 0.7 W 2.2 0.0 0.0
07:49 17.3 16.2 93 1018.5 0.0 SE 1.6 0.0 0.0
07:50 17.3 16.2 93 1018.7 1.6 SE 1.6 0.0 0.0
07:51 17.3 16.2 93 1018.3 0.7 NE 1.6 0.0 0.0
07:52 17.3 16.2 93 1018.6 1.6 S 1.6 0.0 0.0
07:53 17.3 16.2 93 1018.5 2.2 SSW 2.2 0.0 0.0
07:54 17.3 16.2 93 1018.3 2.2 S 2.2 0.0 0.0
07:55 17.3 16.2 93 1018.6 3.1 S 3.1 0.0 0.0
07:56 17.4 16.3 93 1018.3 2.2 SW 3.1 0.0 0.0
07:57 17.4 16.3 93 1018.6 2.2 SW 3.1 0.0 0.0
07:58 17.4 16.3 93 1018.5 2.2 W 3.1 0.0 0.0
07:59 17.4 16.3 93 1018.5 2.2 W 3.1 0.0 0.0
08:00 17.4 16.3 93 1018.5 1.6 W 3.1 0.0 0.0
08:01 17.4 16.3 93 1018.5 2.2 S 3.1 0.0 0.0
08:02 17.4 16.3 93 1018.5 3.1 SW 3.1 0.0 0.0
08:03 17.5 16.4 93 1018.4 3.1 WSW 3.1 0.0 0.0
08:05 17.5 16.4 93 1018.3 2.2 S 3.1 0.0 0.0
08:06 17.5 16.4 93 1018.4 3.8 SW 3.8 0.0 0.0
08:07 17.5 16.4 93 1018.4 3.1 SW 3.8 0.0 0.0
08:08 17.5 16.4 93 1018.4 3.1 S 3.8 0.0 0.0
08:09 17.6 16.5 93 1018.5 3.1 S 3.8 0.0 0.0
08:11 17.6 16.5 93 1018.5 3.8 SW 3.8 0.0 0.0
08:12 17.6 16.5 93 1018.3 3.1 SSW 3.8 0.0 0.0
08:13 17.6 16.5 93 1018.5 3.1 S 3.8 0.0 0.0
08:14 17.6 16.5 93 1018.5 4.5 S 4.5 0.0 0.0
08:15 17.6 16.5 93 1018.5 3.8 SW 4.5 0.0 0.0
08:16 17.7 16.6 93 1018.4 3.1 SW 4.5 0.0 0.0
08:17 17.7 16.6 93 1018.4 3.1 SSW 4.5 0.0 0.0
08:18 17.7 16.6 93 1018.5 3.8 W 4.5 0.0 0.0
08:19 17.7 16.6 93 1018.5 3.8 SW 4.5 0.0 0.0
08:20 17.7 16.6 93 1018.5 4.5 S 4.5 0.0 0.0
08:21 17.7 16.6 93 1018.5 4.5 SSW 4.5 0.0 0.0
08:22 17.7 16.6 93 1018.4 3.1 SW 4.5 0.0 0.0
08:23 17.8 16.7 93 1018.3 3.8 S 4.5 0.0 0.0
08:25 17.8 16.7 93 1018.4 4.5 S 4.5 0.0 0.0
08:26 17.8 16.7 93 1018.5 5.4 S 5.4 0.0 0.0
08:27 17.8 16.7 93 1018.4 3.8 S 5.4 0.0 0.0
08:28 17.8 16.7 93 1018.3 2.2 S 5.4 0.0 0.0
08:29 17.8 16.7 93 1018.4 2.2 SW 5.4 0.0 0.0
08:30 17.8 16.7 93 1018.4 3.8 SE 5.4 0.0 0.0
08:31 17.8 16.7 93 1018.3 3.1 S 5.4 0.0 0.0
08:32 17.8 16.7 93 1018.4 3.8 S 5.4 0.0 0.0
08:33 17.8 16.7 93 1018.4 3.8 S 5.4 0.0 0.0
08:34 17.8 16.7 93 1018.5 2.2 S 5.4 0.0 0.0
08:35 17.8 16.7 93 1018.5 3.1 S 5.4 0.0 0.0
08:36 17.8 16.7 93 1018.6 3.1 S 5.4 0.0 0.0
08:37 17.8 16.7 93 1018.3 3.1 S 3.8 0.0 0.0
08:39 17.9 16.8 93 1018.5 4.5 SE 4.5 0.0 0.0
08:40 17.9 16.8 93 1018.4 4.5 S 4.5 0.0 0.0
08:41 17.9 16.8 93 1018.3 3.1 SW 4.5 0.0 0.0
08:42 17.9 16.8 93 1018.5 4.5 S 4.5 0.0 0.0
08:43 17.9 16.8 93 1018.4 4.5 S 4.5 0.0 0.0
08:44 17.9 16.8 93 1018.5 5.4 S 5.4 0.0 0.0
08:45 17.9 16.8 93 1018.4 3.8 SW 5.4 0.0 0.0
08:46 17.9 16.8 93 1018.4 3.1 S 5.4 0.0 0.0
08:47 17.9 16.8 93 1018.5 3.1 S 5.4 0.0 0.0
08:48 17.9 16.8 93 1018.5 3.8 S 5.4 0.0 0.0
08:49 17.9 16.8 93 1018.5 3.1 S 5.4 0.0 0.0
08:50 17.9 16.8 93 1018.5 3.8 SW 5.4 0.0 0.0
08:51 17.8 16.7 93 1018.5 3.8 SW 5.4 0.0 0.0
08:52 18.0 16.9 93 1018.7 3.1 SW 5.4 0.0 0.0
08:54 18.0 16.9 93 1018.5 3.1 S 4.5 0.0 0.0
08:55 18.0 16.9 93 1018.5 2.2 SE 4.5 0.0 0.0
08:56 18.0 16.9 93 1018.5 3.1 S 4.5 0.0 0.0
08:57 18.0 16.9 93 1018.6 3.1 S 4.5 0.0 0.0
08:58 18.0 16.9 93 1018.6 3.1 S 3.8 0.0 0.0
08:59 18.0 16.9 93 1018.6 2.2 S 3.8 0.0 0.0
09:00 18.1 17.0 93 1018.5 3.8 SW 3.8 0.0 0.0
09:01 18.1 17.0 93 1018.5 2.2 S 3.8 0.0 0.0
09:02 18.1 17.0 93 1018.4 4.5 S 4.5 0.0 0.0
09:03 18.1 17.0 93 1018.5 4.5 S 4.5 0.0 0.0
09:04 18.1 17.0 93 1018.6 4.5 S 4.5 0.0 0.0
09:05 18.1 17.0 93 1018.6 4.5 S 4.5 0.0 0.0
09:06 18.1 17.0 93 1018.5 4.5 S 4.5 0.0 0.0
09:07 18.1 17.0 93 1018.4 4.5 S 4.5 0.0 0.0
09:08 18.2 17.1 93 1018.4 4.5 S 4.5 0.0 0.0
09:09 18.2 17.1 93 1018.5 3.1 SE 4.5 0.0 0.0
09:10 18.2 17.1 93 1018.6 4.5 S 4.5 0.0 0.0
09:12 18.3 17.2 93 1018.5 5.4 E 5.4 0.0 0.0
09:13 18.3 17.2 93 1018.5 6.0 SE 6.0 0.0 0.0
09:14 18.3 17.2 93 1018.5 5.4 SSE 6.0 0.0 0.0
09:15 18.3 17.2 93 1018.5 5.4 SE 6.0 0.0 0.0
09:16 18.3 17.2 93 1018.4 5.4 SW 6.0 0.0 0.0
09:17 18.4 17.3 93 1018.3 3.1 S 6.0 0.0 0.0
09:18 18.4 17.3 93 1018.5 3.1 S 6.0 0.0 0.0
09:19 18.4 17.3 93 1018.4 3.8 SW 6.0 0.0 0.0
09:20 18.4 17.3 93 1018.6 3.8 SW 6.0 0.0 0.0
09:21 18.4 17.3 93 1018.6 3.8 S 6.0 0.0 0.0
09:22 18.5 17.4 93 1018.3 3.1 S 6.0 0.0 0.0
09:23 18.5 17.4 93 1018.4 3.8 S 6.0 0.0 0.0
09:24 18.6 17.5 93 1018.3 3.1 SW 6.0 0.0 0.0
09:25 18.6 17.5 93 1018.4 6.9 S 6.9 0.0 0.0
09:27 18.6 17.5 93 1018.5 5.4 S 6.9 0.0 0.0
09:28 18.7 17.6 93 1018.4 4.5 S 6.9 0.0 0.0
09:29 18.8 17.7 93 1018.6 5.4 S 6.9 0.0 0.0
09:30 18.8 17.7 93 1018.4 5.4 S 6.9 0.0 0.0
09:31 18.8 17.7 93 1018.4 6.0 SE 6.9 0.0 0.0
09:32 18.8 17.5 92 1018.4 6.0 S 6.9 0.0 0.0
09:33 18.8 17.5 92 1018.5 4.5 S 6.9 0.0 0.0
09:34 18.9 17.6 92 1018.4 6.9 SSE 6.9 0.0 0.0
09:35 18.9 17.6 92 1018.4 5.4 S 6.9 0.0 0.0
09:36 18.9 17.6 92 1018.4 8.3 SE 8.3 0.0 0.0
09:37 19.0 17.7 92 1018.4 4.5 S 8.3 0.0 0.0
09:38 19.0 17.7 92 1018.5 4.5 S 8.3 0.0 0.0
09:39 19.0 17.7 92 1018.4 7.6 SE 8.3 0.0 0.0
09:40 19.1 17.8 92 1018.4 6.9 SW 8.3 0.0 0.0
09:42 19.3 18.0 92 1018.5 7.6 SE 8.3 0.0 0.0
09:43 19.3 18.0 92 1018.5 6.9 SE 8.3 0.0 0.0
09:44 19.4 17.9 91 1018.4 4.5 S 8.3 0.0 0.0
09:45 19.5 18.0 91 1018.5 8.3 S 8.3 0.0 0.0
09:46 19.5 18.0 91 1018.3 6.9 S 8.3 0.0 0.0
09:47 19.5 18.0 91 1018.3 6.9 S 8.3 0.0 0.0
09:48 19.6 18.1 91 1018.4 6.0 SE 8.3 0.0 0.0
09:49 19.7 18.2 91 1018.4 6.9 S 8.3 0.0 0.0
09:50 19.7 18.2 91 1018.3 6.9 SW 8.3 0.0 0.0
09:51 19.8 18.3 91 1018.3 9.2 SE 9.2 0.0 0.0
09:52 19.9 18.2 90 1018.4 6.9 SE 9.2 0.0 0.0
09:53 19.9 18.2 90 1018.3 6.9 S 9.2 0.0 0.0
09:54 19.9 18.2 90 1018.3 7.6 SW 9.2 0.0 0.0
09:55 20.0 18.3 90 1018.4 8.3 S 9.2 0.0 0.0
09:57 20.0 18.1 89 1018.3 7.6 S 10.7 0.0 0.0
09:58 20.0 18.1 89 1018.3 6.0 S 10.7 0.0 0.0
09:59 20.0 18.1 89 1018.2 6.0 SE 10.7 0.0 0.0
10:00 20.0 18.1 89 1018.3 5.4 S 10.7 0.0 0.0
10:01 20.0 18.1 89 1018.3 9.8 S 10.7 0.0 0.0
10:02 20.0 18.1 89 1018.3 9.8 S 10.7 0.0 0.0
10:03 20.0 18.1 89 1018.5 9.8 S 10.7 0.0 0.0
10:04 20.2 18.2 88 1018.3 8.3 S 10.7 0.0 0.0
10:05 20.2 18.2 88 1018.3 8.3 S 10.7 0.0 0.0
10:06 20.2 18.2 88 1018.4 9.8 S 10.7 0.0 0.0
10:07 20.3 18.3 88 1018.4 9.8 SW 9.8 0.0 0.0
10:08 20.3 18.3 88 1018.4 8.3 W 10.7 0.0 0.0
10:09 20.3 18.1 87 1018.4 10.7 S 10.7 0.0 0.0
10:10 20.3 18.1 87 1018.4 9.8 S 10.7 0.0 0.0
10:12 20.2 18.0 87 1018.4 8.3 SW 10.7 0.0 0.0
10:13 20.2 17.8 86 1018.2 8.3 SW 10.7 0.0 0.0
10:14 20.2 17.8 86 1018.4 9.2 S 10.7 0.0 0.0
10:15 20.2 17.8 86 1018.4 9.2 S 10.7 0.0 0.0
10:16 20.2 17.8 86 1018.5 9.8 S 10.7 0.0 0.0
10:17 20.2 17.8 86 1018.4 8.3 S 10.7 0.0 0.0
10:18 20.2 17.6 85 1018.5 6.9 S 10.7 0.0 0.0
10:19 20.2 17.6 85 1018.4 11.4 SE 11.4 0.0 0.0
10:20 20.2 17.6 85 1018.5 9.8 S 11.4 0.0 0.0
10:21 20.2 17.4 84 1018.4 13.0 S 13.0 0.0 0.0
10:22 20.2 17.2 83 1018.5 9.2 S 13.0 0.0 0.0
10:23 20.3 17.3 83 1018.3 7.6 S 13.0 0.0 0.0
10:24 20.4 17.2 82 1018.4 13.0 SE 13.0 0.0 0.0
10:25 20.4 17.2 82 1018.4 10.7 S 13.0 0.0 0.0
10:26 20.5 17.3 82 1018.3 9.8 SE 13.0 0.0 0.0
10:28 20.5 17.1 81 1018.5 9.2 S 13.0 0.0 0.0
10:29 20.5 17.1 81 1018.5 10.7 S 13.0 0.0 0.0
10:30 20.5 17.1 81 1018.3 9.2 SW 13.0 0.0 0.0
10:31 20.5 16.9 80 1018.5 6.9 S 13.0 0.0 0.0
10:32 20.4 16.8 80 1018.3 9.8 S 13.0 0.0 0.0
10:33 20.5 16.9 80 1018.5 13.0 SE 13.0 0.0 0.0
10:34 20.5 16.9 80 1018.3 12.1 W 13.0 0.0 0.0
10:35 20.5 16.9 80 1018.3 11.4 S 13.0 0.0 0.0
10:36 20.5 16.9 80 1018.5 9.8 S 13.0 0.0 0.0
10:37 20.6 17.0 80 1018.5 9.8 S 13.0 0.0 0.0
10:38 20.7 17.1 80 1018.5 10.7 S 13.0 0.0 0.0
10:39 20.8 17.0 79 1018.6 9.8 S 13.0 0.0 0.0
10:40 20.9 16.9 78 1018.4 13.0 W 13.0 0.0 0.0
10:41 21.0 17.2 79 1018.6 10.7 N 13.0 0.0 0.0
10:42 21.1 17.3 79 1018.5 9.8 S 13.0 0.0 0.0
10:44 21.1 17.3 79 1018.3 9.2 SE 13.0 0.0 0.0
10:45 21.3 17.3 78 1018.3 11.4 S 13.0 0.0 0.0
10:46 21.4 17.2 77 1018.6 13.6 S 13.6 0.0 0.0
10:47 21.4 17.2 77 1018.4 12.1 S 13.6 0.0 0.0
10:48 21.4 17.0 76 1018.4 12.1 WSW 13.6 0.0 0.0
10:49 21.5 17.3 77 1018.4 8.3 SW 13.6 0.0 0.0
10:50 21.5 17.3 77 1018.5 12.1 S 13.6 0.0 0.0
10:51 21.6 17.4 77 1018.5 11.4 SE 13.6 0.0 0.0
10:52 21.7 17.3 76 1018.6 9.8 NW 13.6 0.0 0.0
10:53 21.8 17.4 76 1018.5 9.8 NW 13.6 0.0 0.0
10:54 21.9 17.5 76 1018.6 12.1 S 13.6 0.0 0.0
10:55 21.9 17.3 75 1018.3 9.2 S 13.6 0.0 0.0
10:56 21.9 17.1 74 1018.6 10.7 S 13.6 0.0 0.0
10:57 21.9 16.9 73 1018.4 11.4 SW 12.1 0.0 0.0
10:58 22.1 17.3 74 1018.4 9.8 S 12.1 0.0 0.0
11:00 22.2 17.1 73 1018.4 13.6 S 13.6 0.0 0.0
11:01 22.3 17.0 72 1018.5 10.7 SW 13.6 0.0 0.0
11:02 22.3 17.0 72 1018.7 10.7 SW 13.6 0.0 0.0
11:03 22.3 16.8 71 1018.7 13.0 S 13.6 0.0 0.0
11:04 22.2 16.7 71 1018.7 12.1 S 13.6 0.0 0.0
11:05 22.2 16.7 71 1018.5 12.1 SW 13.6 0.0 0.0
11:06 22.1 16.6 71 1018.6 11.4 SW 13.6 0.0 0.0
11:07 22.1 16.8 72 1018.6 9.2 SW 13.6 0.0 0.0
11:08 22.1 16.8 72 1018.5 13.6 S 13.6 0.0 0.0
11:09 22.1 16.8 72 1018.5 10.7 S 13.6 0.0 0.0
11:10 22.1 16.8 72 1018.5 9.8 S 13.6 0.0 0.0
11:11 22.1 16.8 72 1018.5 8.3 SW 13.6 0.0 0.0
11:12 22.0 16.7 72 1018.6 8.3 S 13.6 0.0 0.0
11:13 22.0 16.7 72 1018.4 11.4 S 13.6 0.0 0.0
11:14 21.9 16.6 72 1018.4 8.3 SW 13.6 0.0 0.0
11:15 21.9 16.6 72 1018.3 9.2 S 13.6 0.0 0.0
11:17 21.7 16.4 72 1018.4 11.4 S 13.6 0.0 0.0
11:18 21.6 16.4 72 1018.6 9.2 S 12.1 0.0 0.0
11:19 21.6 16.4 72 1018.3 10.7 SW 12.1 0.0 0.0
11:20 21.5 16.3 72 1018.5 12.1 SW 12.1 0.0 0.0
11:21 21.4 16.2 72 1018.4 11.4 SW 12.1 0.0 0.0
11:22 21.4 16.2 72 1018.4 11.4 SW 12.1 0.0 0.0
11:23 21.3 16.3 73 1018.3 11.4 SW 12.1 0.0 0.0
11:24 21.2 16.2 73 1018.3 9.2 SE 12.1 0.0 0.0
11:25 21.2 16.2 73 1018.4 8.3 S 12.1 0.0 0.0
11:26 21.1 16.1 73 1018.3 8.3 SW 12.1 0.0 0.0
11:27 21.1 16.1 73 1018.4 7.6 S 12.1 0.0 0.0
11:28 21.1 16.1 73 1018.3 6.9 S 12.1 0.0 0.0
11:29 21.1 16.1 73 1018.4 9.8 S 12.1 0.0 0.0
11:30 21.0 16.0 73 1018.2 7.6 S 11.4 0.0 0.0
11:31 21.0 16.0 73 1018.4 9.8 SE 11.4 0.0 0.0
11:33 21.0 16.2 74 1018.3 6.0 SW 11.4 0.0 0.0
11:34 21.0 16.2 74 1018.3 6.9 SW 9.8 0.0 0.0
11:35 21.0 16.2 74 1018.5 9.8 S 9.8 0.0 0.0
11:36 20.9 16.1 74 1018.4 9.8 S 9.8 0.0 0.0
11:37 20.9 16.1 74 1018.5 12.1 SW 12.1 0.0 0.0
11:38 20.9 16.1 74 1018.3 13.6 S 13.6 0.0 0.0
11:39 20.8 16.0 74 1018.4 7.6 S 13.6 0.0 0.0
11:40 20.8 16.0 74 1018.4 9.2 SE 13.6 0.0 0.0
11:41 20.8 16.0 74 1018.3 7.6 SW 13.6 0.0 0.0
11:42 20.8 16.0 74 1018.4 9.2 S 13.6 0.0 0.0
11:43 20.7 15.9 74 1018.3 8.3 SW 13.6 0.0 0.0
11:44 20.7 15.7 73 1018.4 9.8 S 13.6 0.0 0.0
11:45 20.6 15.6 73 1018.3 7.6 SW 13.6 0.0 0.0
11:46 20.6 15.8 74 1018.4 9.8 SW 13.6 0.0 0.0
11:47 20.6 15.8 74 1018.5 9.2 S 13.6 0.0 0.0
11:49 20.6 15.8 74 1018.2 9.8 SW 9.8 0.0 0.0
11:50 20.6 15.8 74 1018.5 7.6 SW 9.8 0.0 0.0
11:51 20.6 15.8 74 1018.4 9.8 S 9.8 0.0 0.0
11:52 20.6 15.8 74 1018.3 6.9 SE 9.8 0.0 0.0
11:53 20.6 15.8 74 1018.3 7.6 S 9.8 0.0 0.0
11:54 20.6 15.8 74 1018.3 6.9 SSE 9.8 0.0 0.0
11:55 20.7 16.3 76 1018.3 6.9 SW 9.8 0.0 0.0
11:56 20.9 16.7 77 1018.1 4.5 S 9.8 0.0 0.0
11:57 21.0 16.6 76 1018.1 9.2 SW 9.8 0.0 0.0
11:58 21.2 16.6 75 1018.1 9.2 SE 9.8 0.0 0.0
11:59 21.3 16.5 74 1018.3 6.9 S 9.8 0.0 0.0
12:00 21.4 16.6 74 1018.4 9.8 S 9.8 0.0 0.0
12:01 21.4 16.6 74 1018.3 6.0 S 9.8 0.0 0.0
12:02 21.4 16.6 74 1018.2 6.0 S 9.8 0.0 0.0
12:04 21.3 16.3 73 1018.3 8.3 S 9.8 0.0 0.0
12:05 21.2 16.2 73 1018.4 9.2 SSW 9.8 0.0 0.0
12:06 21.2 16.2 73 1018.2 9.2 S 9.8 0.0 0.0
12:07 21.1 16.1 73 1018.3 8.3 S 9.8 0.0 0.0
12:08 21.1 16.1 73 1018.3 9.8 SW 9.8 0.0 0.0
12:09 21.1 16.1 73 1018.3 9.2 S 9.8 0.0 0.0
12:10 21.1 16.1 73 1018.3 10.7 S 10.7 0.0 0.0
12:11 21.0 16.0 73 1018.4 6.0 SW 10.7 0.0 0.0
12:12 21.0 15.8 72 1018.3 9.2 SW 10.7 0.0 0.0
12:13 21.0 15.8 72 1018.2 9.8 S 10.7 0.0 0.0
12:14 21.0 15.8 72 1018.3 9.2 S 10.7 0.0 0.0
12:15 21.1 15.7 71 1018.3 9.8 S 11.4 0.0 0.0
12:16 21.1 15.7 71 1018.3 9.8 SW 11.4 0.0 0.0
12:17 21.2 15.7 71 1018.3 8.3 S 11.4 0.0 0.0
12:19 21.3 15.8 71 1018.4 10.7 S 11.4 0.0 0.0
12:20 21.3 15.8 71 1018.4 9.8 S 11.4 0.0 0.0
12:21 21.3 15.8 71 1018.3 9.8 SE 11.4 0.0 0.0
12:22 21.2 15.7 71 1018.4 8.3 SW 11.4 0.0 0.0
12:23 21.2 15.7 71 1018.3 10.7 S 11.4 0.0 0.0
12:24 21.2 15.5 70 1018.3 11.4 SE 11.4 0.0 0.0
12:25 21.2 15.7 71 1018.4 8.3 S 11.4 0.0 0.0
12:26 21.2 15.5 70 1018.2 9.8 S 11.4 0.0 0.0
12:27 21.3 15.8 71 1018.3 9.2 S 11.4 0.0 0.0
12:28 21.4 15.7 70 1018.2 7.6 S 11.4 0.0 0.0
12:29 21.4 15.5 69 1018.2 9.2 SE 11.4 0.0 0.0
12:30 21.5 15.8 70 1018.3 10.7 NW 11.4 0.0 0.0
12:31 21.6 15.9 70 1018.3 13.0 SE 13.0 0.0 0.0
12:32 21.7 16.0 70 1018.3 9.2 S 13.0 0.0 0.0
12:33 21.7 15.8 69 1018.3 9.2 SE 13.0 0.0 0.0
12:35 21.6 15.7 69 1018.2 11.4 S 13.0 0.0 0.0
12:36 21.5 15.6 69 1018.2 9.8 SE 13.0 0.0 0.0
12:37 21.4 15.3 68 1018.2 10.7 S 13.0 0.0 0.0
12:38 21.4 15.3 68 1018.1 9.2 S 13.0 0.0 0.0
12:39 21.4 15.5 69 1018.1 8.3 SW 13.0 0.0 0.0
12:40 21.5 15.8 70 1018.1 9.8 S 13.0 0.0 0.0
12:41 21.5 15.8 70 1018.1 6.9 SE 13.0 0.0 0.0
12:42 21.5 15.8 70 1018.1 9.8 SW 12.1 0.0 0.0
12:43 21.5 15.4 68 1018.2 8.3 SE 12.1 0.0 0.0
12:44 21.5 15.4 68 1018.2 9.8 S 12.1 0.0 0.0
12:45 21.5 15.4 68 1018.1 8.3 S 11.4 0.0 0.0
12:46 21.5 15.4 68 1018.0 7.6 SW 10.7 0.0 0.0
12:47 21.5 15.4 68 1018.2 10.7 SW 10.7 0.0 0.0
12:48 21.5 15.4 68 1018.1 10.7 E 10.7 0.0 0.0
12:49 21.5 15.4 68 1018.2 11.4 SW 11.4 0.0 0.0
12:51 21.5 15.6 69 1018.3 5.4 SW 11.4 0.0 0.0
12:52 21.7 16.0 70 1018.1 11.4 S 11.4 0.0 0.0
12:53 21.8 15.9 69 1018.2 8.3 S 11.4 0.0 0.0
12:54 21.9 16.0 69 1018.3 10.7 SW 11.4 0.0 0.0
12:55 22.0 16.1 69 1017.9 9.2 SE 11.4 0.0 0.0
12:56 22.0 15.8 68 1018.1 9.2 S 11.4 0.0 0.0
12:57 22.0 15.8 68 1017.9 10.7 S 11.4 0.0 0.0
12:58 22.0 15.8 68 1018.0 9.2 SW 11.4 0.0 0.0
12:59 22.0 15.8 68 1018.0 12.1 S 12.1 0.0 0.0
13:00 21.9 15.7 68 1018.2 9.8 SW 12.1 0.0 0.0
13:01 22.0 15.6 67 1018.1 8.3 SE 12.1 0.0 0.0
13:02 22.0 15.8 68 1018.1 6.9 SW 12.1 0.0 0.0
13:03 22.0 15.8 68 1018.0 6.9 SW 12.1 0.0 0.0
13:04 22.4 16.0 67 1018.1 10.7 S 12.1 0.0 0.0
13:05 22.4 16.0 67 1018.2 6.9 S 12.1 0.0 0.0
13:06 22.5 16.1 67 1017.9 9.8 SW 12.1 0.0 0.0
13:07 22.5 16.1 67 1018.1 6.9 S 12.1 0.0 0.0
13:08 22.4 16.0 67 1018.0 6.9 SW 12.1 0.0 0.0
13:09 22.3 15.7 66 1018.1 8.3 S 12.1 0.0 0.0
13:10 22.4 16.0 67 1018.3 15.2 S 15.2 0.0 0.0
13:11 22.3 15.9 67 1018.2 12.1 S 15.2 0.0 0.0
13:12 22.3 15.7 66 1018.2 10.7 S 15.2 0.0 0.0
13:14 22.2 15.6 66 1018.2 8.3 S 15.2 0.0 0.0
13:15 22.2 15.6 66 1018.1 8.3 S 15.2 0.0 0.0
13:16 22.1 15.5 66 1018.1 13.0 S 15.2 0.0 0.0
13:17 22.1 15.5 66 1018.1 13.0 S 15.2 0.0 0.0
13:18 22.1 15.7 67 1017.9 10.7 N 15.2 0.0 0.0
13:19 22.2 16.0 68 1017.9 9.8 S 15.2 0.0 0.0
13:20 22.3 16.1 68 1017.9 9.8 SW 14.5 0.0 0.0
13:21 22.5 16.5 69 1018.0 13.0 S 13.0 0.0 0.0
13:22 22.6 16.6 69 1018.1 11.4 SW 13.0 0.0 0.0
13:23 22.7 16.0 66 1018.1 10.7 E 13.0 0.0 0.0
13:24 22.7 16.3 67 1018.0 10.7 SE 13.0 0.0 0.0
13:25 22.7 16.0 66 1018.2 13.0 S 13.0 0.0 0.0
13:26 22.6 15.9 66 1018.1 12.1 S 13.0 0.0 0.0
13:27 22.5 16.1 67 1018.1 9.2 SW 13.0 0.0 0.0
13:29 22.2 15.8 67 1018.2 10.7 S 13.0 0.0 0.0
13:30 22.1 15.9 68 1018.2 10.7 S 13.0 0.0 0.0
13:31 22.0 15.8 68 1018.0 12.1 SW 13.0 0.0 0.0
13:32 21.9 15.7 68 1018.2 10.7 S 13.0 0.0 0.0
13:33 21.9 15.7 68 1018.2 10.7 S 13.0 0.0 0.0
13:34 21.9 15.7 68 1018.1 11.4 S 13.0 0.0 0.0
13:35 21.8 15.6 68 1018.1 9.8 NNE 13.0 0.0 0.0
13:36 21.7 15.8 69 1018.1 13.0 S 13.0 0.0 0.0
13:37 21.7 15.8 69 1018.1 9.2 S 13.0 0.0 0.0
13:38 21.6 15.7 69 1018.2 10.7 S 13.0 0.0 0.0
13:39 21.5 15.6 69 1018.3 8.3 S 13.0 0.0 0.0
13:40 21.5 15.6 69 1018.3 9.2 S 13.0 0.0 0.0
13:41 21.4 15.7 70 1018.3 10.7 S 13.0 0.0 0.0
13:42 21.3 15.6 70 1018.2 10.7 S 13.0 0.0 0.0
13:43 21.3 15.6 70 1018.1 9.2 S 13.0 0.0 0.0
13:45 21.2 15.5 70 1018.2 9.2 S 13.0 0.0 0.0
13:46 21.1 15.7 71 1018.1 9.8 SW 10.7 0.0 0.0
13:47 21.1 15.7 71 1018.2 8.3 S 10.7 0.0 0.0
13:48 21.1 15.7 71 1018.3 9.2 S 10.7 0.0 0.0
13:49 21.0 15.6 71 1018.2 9.2 S 10.7 0.0 0.0
13:50 21.0 15.6 71 1018.2 8.3 SW 10.7 0.0 0.0
13:51 21.0 15.6 71 1018.3 9.8 SW 10.7 0.0 0.0
13:52 20.9 15.5 71 1018.2 12.1 NE 12.1 0.0 0.0
13:53 20.9 15.5 71 1018.3 10.7 SW 12.1 0.0 0.0
13:54 20.9 15.5 71 1018.2 9.8 S 12.1 0.0 0.0
13:55 20.8 15.4 71 1018.2 8.3 S 12.1 0.0 0.0
13:56 20.8 15.4 71 1018.2 8.3 S 12.1 0.0 0.0
13:57 20.8 15.4 71 1018.2 10.7 SW 12.1 0.0 0.0
13:58 20.8 15.4 71 1018.2 9.2 SW 12.1 0.0 0.0
13:59 20.8 15.4 71 1018.4 10.7 S 12.1 0.0 0.0
14:01 20.8 15.4 71 1018.2 13.0 S 13.0 0.0 0.0
14:02 20.8 15.4 71 1018.2 13.0 S 13.0 0.0 0.0
14:03 20.8 15.4 71 1018.1 13.0 S 13.0 0.0 0.0
14:04 20.7 15.3 71 1018.1 6.9 SW 13.0 0.0 0.0
14:05 20.7 15.3 71 1018.3 8.3 S 13.0 0.0 0.0
14:06 20.7 15.3 71 1018.3 8.3 S 13.0 0.0 0.0
14:07 20.7 15.3 71 1018.1 8.3 S 13.0 0.0 0.0
14:08 20.7 15.3 71 1018.1 8.3 SW 13.0 0.0 0.0
14:09 20.7 15.3 71 1018.1 8.3 E 13.0 0.0 0.0
14:10 20.8 15.4 71 1018.0 8.3 S 13.0 0.0 0.0
14:11 20.8 15.6 72 1018.1 7.6 SW 13.0 0.0 0.0
14:12 20.8 15.6 72 1018.1 9.2 SW 13.0 0.0 0.0
14:13 20.8 15.6 72 1018.1 6.9 S 13.0 0.0 0.0
14:14 20.9 15.7 72 1018.3 7.6 SW 11.4 0.0 0.0
14:15 20.9 15.7 72 1018.1 9.2 SW 10.7 0.0 0.0
14:16 20.9 15.7 72 1018.2 6.9 WSW 10.7 0.0 0.0
14:17 21.0 15.8 72 1018.1 6.9 W 9.8 0.0 0.0
14:18 21.0 15.8 72 1018.0 7.6 W 9.8 0.0 0.0
14:20 21.0 15.8 72 1018.0 9.8 SW 9.8 0.0 0.0
14:21 21.0 15.8 72 1018.1 11.4 SSW 11.4 0.0 0.0
14:22 21.0 15.8 72 1018.0 10.7 SW 11.4 0.0 0.0
14:23 21.0 15.8 72 1018.1 12.1 SSW 12.1 0.0 0.0
14:24 21.0 15.8 72 1018.0 11.4 S 12.1 0.0 0.0
14:25 21.0 15.8 72 1018.2 6.0 SE 12.1 0.0 0.0
14:26 21.0 15.8 72 1018.1 10.7 S 12.1 0.0 0.0
14:27 21.0 15.8 72 1018.0 11.4 S 12.1 0.0 0.0
14:28 21.0 15.8 72 1017.9 10.7 S 12.1 0.0 0.0
14:29 21.0 15.8 72 1018.2 9.2 S 12.1 0.0 0.0
14:30 21.0 15.8 72 1018.2 12.1 SW 12.1 0.0 0.0
14:31 21.0 15.8 72 1018.1 12.1 SW 12.1 0.0 0.0
14:32 21.0 15.8 72 1018.1 7.6 SE 12.1 0.0 0.0
14:33 21.0 15.8 72 1018.1 9.8 S 12.1 0.0 0.0
14:34 21.1 15.9 72 1018.0 9.8 S 12.1 0.0 0.0
14:36 21.1 15.9 72 1018.2 10.7 S 13.0 0.0 0.0
14:37 21.1 15.7 71 1018.1 11.4 ESE 13.0 0.0 0.0
14:38 21.1 15.7 71 1018.3 11.4 S 13.0 0.0 0.0
14:39 21.1 15.7 71 1018.0 11.4 S 13.0 0.0 0.0
14:40 21.1 15.7 71 1018.0 13.6 SW 13.6 0.0 0.0
14:41 21.1 15.4 70 1017.9 14.5 S 14.5 0.0 0.0
14:42 21.1 15.4 70 1018.1 10.7 SW 14.5 0.0 0.0
14:43 21.2 15.5 70 1017.9 12.1 SW 14.5 0.0 0.0
14:44 21.2 15.5 70 1018.1 12.1 S 14.5 0.0 0.0
14:45 21.2 15.5 70 1018.1 10.7 SE 14.5 0.0 0.0
14:46 21.2 15.3 69 1018.1 13.6 SW 14.5 0.0 0.0
14:47 21.3 15.4 69 1017.9 8.3 SW 14.5 0.0 0.0
14:48 21.3 15.4 69 1018.0 10.7 SW 14.5 0.0 0.0
14:49 21.3 15.4 69 1018.0 11.4 S 14.5 0.0 0.0
14:50 21.3 15.2 68 1018.0 9.8 S 14.5 0.0 0.0
14:51 21.3 15.2 68 1018.0 9.8 S 13.6 0.0 0.0
14:53 21.4 15.3 68 1017.9 10.7 SW 13.6 0.0 0.0
14:54 21.3 15.2 68 1018.0 9.8 S 13.6 0.0 0.0
14:55 21.4 15.3 68 1018.0 12.1 S 13.6 0.0 0.0
14:56 21.4 15.3 68 1017.9 11.4 SW 13.0 0.0 0.0
14:57 21.4 15.3 68 1017.9 10.7 S 13.0 0.0 0.0
14:58 21.4 15.0 67 1017.9 9.2 S 13.0 0.0 0.0
14:59 21.4 15.0 67 1017.8 11.4 SW 13.0 0.0 0.0
15:00 21.4 15.0 67 1018.0 13.0 WNW 13.0 0.0 0.0
15:01 21.4 15.0 67 1017.9 11.4 SW 13.0 0.0 0.0
15:02 21.3 14.9 67 1018.0 13.0 S 13.0 0.0 0.0
15:03 21.3 14.9 67 1018.0 13.0 S 13.0 0.0 0.0
15:04 21.3 14.9 67 1017.9 12.1 S 13.0 0.0 0.0
15:05 21.3 14.9 67 1017.8 9.2 SW 13.0 0.0 0.0
15:07 21.3 14.9 67 1017.8 9.8 SW 13.0 0.0 0.0
15:08 21.3 14.9 67 1017.9 9.2 SW 13.0 0.0 0.0
15:09 21.3 14.7 66 1017.9 12.1 S 13.0 0.0 0.0
15:10 21.3 14.7 66 1017.8 13.6 SW 13.6 0.0 0.0
15:11 21.3 14.7 66 1017.9 9.8 S 13.6 0.0 0.0
15:12 21.3 14.7 66 1017.8 11.4 SW 13.6 0.0 0.0
15:13 21.3 14.7 66 1018.0 9.2 SW 13.6 0.0 0.0
15:14 21.3 14.7 66 1017.9 10.7 S 13.6 0.0 0.0
15:16 21.4 14.8 66 1017.8 14.5 SW 14.5 0.0 0.0
15:17 21.4 14.8 66 1017.9 10.7 S 14.5 0.0 0.0
15:18 21.4 14.8 66 1017.9 13.6 S 14.5 0.0 0.0
15:19 21.5 14.9 66 1017.8 11.4 S 14.5 0.0 0.0
15:20 21.5 14.9 66 1017.9 10.7 S 14.5 0.0 0.0
15:21 21.6 14.8 65 1017.9 10.7 SE 14.5 0.0 0.0
15:22 21.6 14.8 65 1017.8 9.2 SE 14.5 0.0 0.0
15:23 21.6 14.8 65 1017.8 8.3 SW 14.5 0.0 0.0
15:24 21.6 15.0 66 1017.8 9.2 S 14.5 0.0 0.0
15:25 21.6 15.0 66 1017.8 9.2 S 14.5 0.0 0.0
15:26 21.6 15.0 66 1017.9 10.7 SSW 14.5 0.0 0.0
15:27 21.6 14.8 65 1017.7 10.7 SSW 13.6 0.0 0.0
15:28 21.6 14.8 65 1017.7 10.7 SSW 13.6 0.0 0.0
15:29 21.6 14.8 65 1017.9 9.2 SE 11.4 0.0 0.0
15:30 21.5 14.9 66 1017.9 9.2 SW 10.7 0.0 0.0
15:31 21.5 14.9 66 1017.7 7.6 S 10.7 0.0 0.0
15:32 21.5 14.9 66 1018.0 9.8 S 10.7 0.0 0.0
15:33 21.5 14.9 66 1017.9 8.3 S 10.7 0.0 0.0
15:34 21.5 14.9 66 1017.8 9.8 SW 10.7 0.0 0.0
15:36 21.5 14.9 66 1017.8 11.4 SW 11.4 0.0 0.0
15:37 21.5 14.9 66 1017.9 11.4 SW 11.4 0.0 0.0
15:38 21.4 14.8 66 1017.8 11.4 SW 11.4 0.0 0.0
15:39 21.5 15.1 67 1017.8 11.4 WSW 11.4 0.0 0.0
15:40 21.5 15.1 67 1017.8 6.0 SW 11.4 0.0 0.0
15:41 21.5 15.1 67 1017.8 7.6 SE 11.4 0.0 0.0
15:42 21.5 15.1 67 1017.7 7.6 S 11.4 0.0 0.0
15:43 21.5 15.1 67 1017.8 9.8 S 11.4 0.0 0.0
15:44 21.5 15.1 67 1018.0 9.8 SW 11.4 0.0 0.0
15:45 21.4 15.0 67 1017.7 8.3 S 11.4 0.0 0.0
15:46 21.4 15.0 67 1017.6 6.9 SW 11.4 0.0 0.0
15:47 21.4 15.3 68 1017.8 8.3 SW 11.4 0.0 0.0
15:48 21.4 15.3 68 1017.8 8.3 SW 11.4 0.0 0.0
15:49 21.4 15.0 67 1017.7 11.4 NW 11.4 0.0 0.0
15:50 21.4 15.3 68 1017.8 9.8 S 11.4 0.0 0.0
15:51 21.4 15.3 68 1017.7 7.6 SW 11.4 0.0 0.0
15:52 21.4 15.3 68 1017.7 12.1 S 12.1 0.0 0.0
15:53 21.4 15.3 68 1017.7 9.8 S 12.1 0.0 0.0
15:55 21.5 15.4 68 1017.7 9.8 S 12.1 0.0 0.0
15:56 21.5 15.4 68 1017.8 8.3 SW 12.1 0.0 0.0
15:57 21.5 15.4 68 1017.6 11.4 S 12.1 0.0 0.0
15:58 21.5 15.4 68 1017.7 8.3 SE 12.1 0.0 0.0
15:59 21.5 15.4 68 1017.7 9.2 S 12.1 0.0 0.0
16:00 21.5 15.4 68 1017.7 9.2 SW 12.1 0.0 0.0
16:01 21.5 15.4 68 1017.6 9.2 SW 12.1 0.0 0.0
16:02 21.5 15.4 68 1017.5 7.6 SW 11.4 0.0 0.0
16:03 21.5 15.4 68 1017.6 7.6 SW 11.4 0.0 0.0
16:04 21.4 15.3 68 1017.7 9.8 SW 11.4 0.0 0.0
16:05 21.4 15.3 68 1017.6 9.8 S 11.4 0.0 0.0
16:06 21.4 15.5 69 1017.5 8.3 SW 11.4 0.0 0.0
16:07 21.4 15.5 69 1017.6 9.2 S 9.8 0.0 0.0
16:08 21.4 15.5 69 1017.8 14.5 S 14.5 0.0 0.0
16:09 21.4 15.5 69 1017.5 11.4 S 14.5 0.0 0.0
16:10 21.4 15.3 68 1017.6 9.8 S 14.5 0.0 0.0
16:11 21.4 15.5 69 1017.5 10.7 SW 14.5 0.0 0.0
16:13 21.4 15.5 69 1017.7 9.2 SE 14.5 0.0 0.0
16:14 21.5 15.6 69 1017.6 8.3 S 14.5 0.0 0.0
16:15 21.5 15.6 69 1017.5 9.8 SW 14.5 0.0 0.0
16:16 21.5 15.4 68 1017.5 5.4 S 14.5 0.0 0.0
16:17 21.5 15.6 69 1017.7 9.8 S 14.5 0.0 0.0
16:18 21.5 15.6 69 1017.5 11.4 SE 13.0 0.0 0.0
16:19 21.5 15.6 69 1017.4 7.6 SW 13.0 0.0 0.0
16:20 21.6 15.7 69 1017.4 6.9 SSE 11.4 0.0 0.0
16:21 21.6 15.7 69 1017.3 7.6 S 11.4 0.0 0.0
16:22 21.7 15.8 69 1017.5 10.7 S 11.4 0.0 0.0
16:23 21.7 15.8 69 1017.4 11.4 SW 11.4 0.0 0.0
16:24 21.8 15.6 68 1017.5 9.2 S 11.4 0.0 0.0
16:25 21.8 15.6 68 1017.4 8.3 S 11.4 0.0 0.0
16:26 21.8 15.4 67 1017.4 9.8 S 11.4 0.0 0.0
16:27 21.8 15.4 67 1017.6 13.6 S 13.6 0.0 0.0
16:28 21.8 15.4 67 1017.5 8.3 SW 13.6 0.0 0.0
16:29 21.7 15.3 67 1017.3 8.3 S 13.6 0.0 0.0
16:30 21.7 15.6 68 1017.4 9.2 SW 13.6 0.0 0.0
16:31 21.7 15.3 67 1017.3 11.4 S 13.6 0.0 0.0
16:33 21.6 15.5 68 1017.4 9.8 SE 13.6 0.0 0.0
16:34 21.6 15.5 68 1017.5 9.2 SE 13.6 0.0 0.0
16:35 21.6 15.5 68 1017.5 8.3 S 13.6 0.0 0.0
16:36 21.6 15.2 67 1017.4 9.8 S 13.6 0.0 0.0
16:37 21.6 15.2 67 1017.5 8.3 S 11.4 0.0 0.0
16:38 21.5 15.4 68 1017.5 11.4 SE 11.4 0.0 0.0
16:39 21.5 15.4 68 1017.4 6.9 SW 11.4 0.0 0.0
16:40 21.5 15.4 68 1017.3 9.2 SW 11.4 0.0 0.0
16:41 21.4 15.3 68 1017.4 6.0 NW 11.4 0.0 0.0
16:42 21.4 15.3 68 1017.3 6.9 W 11.4 0.0 0.0
16:43 21.4 15.3 68 1017.5 8.3 SW 11.4 0.0 0.0
16:44 21.5 15.6 69 1017.3 9.8 S 11.4 0.0 0.0
16:45 21.5 15.1 67 1017.3 10.7 S 11.4 0.0 0.0
16:46 21.6 15.2 67 1017.4 8.3 S 11.4 0.0 0.0
16:47 21.6 15.2 67 1017.2 9.8 S 11.4 0.0 0.0
16:49 21.9 15.5 67 1017.3 9.8 SE 11.4 0.0 0.0
16:50 21.9 15.5 67 1017.2 12.1 S 12.1 0.0 0.0
16:51 22.0 15.6 67 1017.2 8.3 SE 12.1 0.0 0.0
16:52 22.1 15.5 66 1017.4 11.4 N 12.1 0.0 0.0
16:53 22.2 15.6 66 1017.3 9.8 S 12.1 0.0 0.0
16:54 22.2 15.3 65 1017.3 9.8 S 12.1 0.0 0.0
16:55 22.2 15.3 65 1017.3 8.3 SW 12.1 0.0 0.0
16:56 22.3 15.4 65 1017.2 11.4 SW 12.1 0.0 0.0
16:57 22.3 15.4 65 1017.3 7.6 SW 12.1 0.0 0.0
16:58 22.3 15.4 65 1017.2 9.2 SE 12.1 0.0 0.0
16:59 22.2 15.3 65 1017.3 8.3 S 12.1 0.0 0.0
17:00 22.2 15.3 65 1017.3 8.3 S 11.4 0.0 0.0
17:01 22.2 15.1 64 1017.2 8.3 SE 11.4 0.0 0.0
17:02 22.3 15.2 64 1017.4 9.8 SW 11.4 0.0 0.0
17:03 22.3 15.2 64 1017.1 8.3 SW 11.4 0.0 0.0
17:04 22.3 15.2 64 1017.3 8.3 SW 11.4 0.0 0.0
17:05 22.5 15.1 63 1017.2 8.3 S 11.4 0.0 0.0
17:06 22.5 15.1 63 1017.3 8.3 S 11.4 0.0 0.0
17:07 22.5 15.1 63 1017.3 6.9 S 9.8 0.0 0.0
17:08 22.5 15.1 63 1017.2 9.2 SSW 9.8 0.0 0.0
17:09 22.5 14.9 62 1017.4 13.0 SW 13.0 0.0 0.0
17:10 22.5 15.1 63 1017.4 8.3 SW 13.0 0.0 0.0
17:11 22.5 15.1 63 1017.3 9.2 SE 13.0 0.0 0.0
17:13 22.6 15.0 62 1017.2 10.7 SE 13.0 0.0 0.0
17:14 22.6 15.0 62 1017.2 12.1 S 13.0 0.0 0.0
17:15 22.6 15.0 62 1017.2 9.2 S 13.0 0.0 0.0
17:16 22.7 15.1 62 1017.3 12.1 S 13.0 0.0 0.0
17:17 22.7 15.1 62 1017.3 9.8 S 13.0 0.0 0.0
17:18 22.8 14.9 61 1017.1 9.2 SW 13.0 0.0 0.0
17:19 22.8 15.2 62 1017.2 7.6 SW 13.0 0.0 0.0
17:20 22.8 14.9 61 1017.1 9.2 S 13.0 0.0 0.0
17:21 22.7 14.8 61 1017.2 13.0 S 13.0 0.0 0.0
17:22 22.7 14.8 61 1017.2 10.7 SE 13.0 0.0 0.0
17:23 22.8 14.9 61 1017.1 7.6 SW 13.0 0.0 0.0
17:24 22.8 14.9 61 1017.2 9.2 S 13.0 0.0 0.0
17:25 22.7 14.8 61 1017.1 9.2 S 13.0 0.0 0.0
17:26 22.7 14.8 61 1017.0 7.6 S 13.0 0.0 0.0
17:27 22.7 14.8 61 1017.0 11.4 SE 13.0 0.0 0.0
17:28 22.7 14.8 61 1017.1 9.2 SSW 13.0 0.0 0.0
17:29 22.6 14.7 61 1017.2 11.4 SW 13.0 0.0 0.0
17:30 22.6 14.7 61 1017.2 9.2 SE 13.0 0.0 0.0
17:32 22.4 14.5 61 1017.0 9.2 SSE 11.4 0.0 0.0
17:33 22.4 14.8 62 1017.1 9.8 SW 11.4 0.0 0.0
17:34 22.3 14.7 62 1017.0 10.7 SW 11.4 0.0 0.0
17:35 22.3 14.9 63 1017.3 9.8 SW 11.4 0.0 0.0
17:36 22.3 14.7 62 1017.1 10.7 S 11.4 0.0 0.0
17:37 22.2 14.6 62 1017.1 15.2 S 15.2 0.0 0.0
17:38 22.2 14.8 63 1017.1 11.4 S 15.2 0.0 0.0
17:39 22.2 14.8 63 1017.1 9.8 SW 15.2 0.0 0.0
17:40 22.2 14.8 63 1017.1 9.8 SSW 15.2 0.0 0.0
17:41 22.2 14.6 62 1017.1 13.0 SW 15.2 0.0 0.0
17:42 22.3 14.4 61 1016.9 15.9 SE 15.9 0.0 0.0
17:43 22.2 14.3 61 1017.0 13.0 SW 15.9 0.0 0.0
17:44 22.2 14.3 61 1017.1 12.1 S 15.9 0.0 0.0
17:45 22.2 14.6 62 1017.0 10.7 SW 15.9 0.0 0.0
17:46 22.2 14.8 63 1017.0 9.8 WSW 15.9 0.0 0.0
17:47 22.2 14.8 63 1017.1 9.8 SW 15.9 0.0 0.0
17:48 22.3 14.9 63 1017.0 10.7 SW 15.9 0.0 0.0
17:50 22.3 14.7 62 1017.2 12.1 S 15.9 0.0 0.0
17:51 22.3 14.7 62 1017.1 12.1 S 15.9 0.0 0.0
17:52 22.2 14.6 62 1016.9 12.1 S 15.9 0.0 0.0
17:53 22.2 14.6 62 1016.9 13.0 W 13.0 0.0 0.0
17:54 22.2 14.6 62 1017.0 9.8 SE 13.0 0.0 0.0
17:55 22.2 14.8 63 1017.2 9.8 SW 13.0 0.0 0.0
17:56 22.1 14.5 62 1017.2 11.4 S 13.0 0.0 0.0
17:57 22.1 14.5 62 1017.0 9.8 SW 13.0 0.0 0.0
17:58 22.1 14.5 62 1017.0 9.8 SW 13.0 0.0 0.0
17:59 22.0 14.6 63 1017.0 9.2 S 13.0 0.0 0.0
18:00 22.0 14.6 63 1017.0 11.4 S 13.0 0.0 0.0
18:01 22.0 14.9 64 1017.0 9.8 SW 13.0 0.0 0.0
18:02 22.0 14.9 64 1016.9 12.1 SW 13.0 0.0 0.0
18:03 22.0 14.6 63 1016.9 10.7 WSW 13.0 0.0 0.0
18:04 22.0 14.6 63 1016.9 10.7 WSW 12.1 0.0 0.0
18:05 22.0 14.6 63 1017.0 9.8 S 12.1 0.0 0.0
18:06 22.1 14.7 63 1016.8 10.7 SW 12.1 0.0 0.0
18:07 22.1 14.7 63 1016.8 9.8 SW 12.1 0.0 0.0
18:08 22.1 15.0 64 1016.8 8.3 SW 12.1 0.0 0.0
18:10 22.0 14.6 63 1016.8 10.7 S 12.1 0.0 0.0
18:11 22.0 14.9 64 1016.8 9.8 WSW 12.1 0.0 0.0
18:12 22.1 15.0 64 1016.7 6.9 SE 10.7 0.0 0.0
18:13 22.1 15.0 64 1016.6 7.6 S 10.7 0.0 0.0
18:14 22.1 15.0 64 1016.6 12.1 S 12.1 0.0 0.0
18:15 22.0 14.9 64 1016.7 9.8 W 12.1 0.0 0.0
18:16 22.1 15.0 64 1016.8 11.4 WNW 12.1 0.0 0.0
18:17 22.1 14.7 63 1016.8 11.4 NW 12.1 0.0 0.0
18:18 22.1 15.0 64 1016.8 6.9 SW 12.1 0.0 0.0
18:19 22.1 15.0 64 1016.8 9.2 S 12.1 0.0 0.0
18:20 22.1 15.0 64 1016.8 10.7 SW 12.1 0.0 0.0
18:21 22.1 14.7 63 1016.8 9.2 SW 12.1 0.0 0.0
18:22 22.0 14.6 63 1016.7 9.2 SW 12.1 0.0 0.0
18:23 22.1 15.0 64 1016.7 10.7 SW 12.1 0.0 0.0
18:24 22.1 14.7 63 1016.7 13.0 S 13.0 0.0 0.0
18:25 22.1 14.7 63 1016.7 11.4 S 13.0 0.0 0.0
18:26 22.0 14.6 63 1016.9 10.7 S 13.0 0.0 0.0
18:27 22.0 14.6 63 1016.8 10.7 SW 13.0 0.0 0.0
18:29 21.9 14.6 63 1016.9 11.4 S 13.0 0.0 0.0
18:30 21.9 14.6 63 1016.8 11.4 SW 13.0 0.0 0.0
18:31 21.9 14.6 63 1016.8 11.4 S 13.0 0.0 0.0
18:32 21.9 14.6 63 1016.7 12.1 S 13.0 0.0 0.0
18:33 21.8 14.5 63 1016.8 9.8 SW 13.0 0.0 0.0
18:34 21.7 14.6 64 1016.6 12.1 S 12.1 0.0 0.0
18:35 21.7 14.6 64 1016.9 13.0 SW 13.0 0.0 0.0
18:36 21.7 14.6 64 1016.8 9.8 SW 13.0 0.0 0.0
18:37 21.7 14.6 64 1016.8 9.2 S 13.0 0.0 0.0
18:38 21.6 14.5 64 1016.9 15.9 S 15.9 0.0 0.0
18:39 21.6 14.5 64 1016.9 15.9 S 15.9 0.0 0.0
18:40 21.6 14.5 64 1017.0 10.7 S 15.9 0.0 0.0
18:41 21.6 14.5 64 1017.0 11.4 SW 15.9 0.0 0.0
18:42 21.6 14.5 64 1016.9 8.3 S 15.9 0.0 0.0
18:43 21.5 14.4 64 1016.9 11.4 S 15.9 0.0 0.0
18:44 21.5 14.4 64 1016.8 9.8 SW 15.9 0.0 0.0
18:45 21.4 14.3 64 1017.1 12.1 SW 15.9 0.0 0.0
18:46 21.4 14.3 64 1017.1 11.4 SW 15.9 0.0 0.0
18:48 21.3 14.2 64 1017.2 10.7 S 15.9 0.0 0.0
18:49 21.2 14.1 64 1017.0 9.2 S 14.5 0.0 0.0
18:50 21.1 14.0 64 1016.9 10.7 S 14.5 0.0 0.0
18:51 21.0 13.9 64 1016.9 9.2 SSW 14.5 0.0 0.0
18:52 21.0 13.9 64 1017.1 9.2 SW 14.5 0.0 0.0
18:53 20.9 13.8 64 1016.8 10.7 S 14.5 0.0 0.0
18:54 20.8 14.0 65 1016.9 12.1 SSW 14.5 0.0 0.0
18:55 20.8 14.0 65 1016.8 9.8 SW 14.5 0.0 0.0
18:56 20.7 13.9 65 1017.0 10.7 S 14.5 0.0 0.0
18:57 20.6 13.8 65 1016.9 6.9 SW 12.1 0.0 0.0
18:58 20.5 13.9 66 1016.9 10.7 WSW 12.1 0.0 0.0
18:59 20.5 13.9 66 1016.9 10.7 WSW 12.1 0.0 0.0
19:00 20.5 13.9 66 1016.8 12.1 SE 12.1 0.0 0.0
19:01 20.5 13.9 66 1016.9 9.8 SW 12.1 0.0 0.0
19:02 20.4 13.8 66 1016.9 9.8 N 12.1 0.0 0.0
19:03 20.3 14.0 67 1016.8 9.8 WSW 12.1 0.0 0.0
19:04 20.3 14.0 67 1016.8 9.8 WSW 12.1 0.0 0.0
19:05 20.2 13.9 67 1016.8 8.3 SW 12.1 0.0 0.0
19:07 20.1 13.8 67 1016.9 9.8 S 12.1 0.0 0.0
19:08 20.1 14.0 68 1017.1 9.8 SW 12.1 0.0 0.0
19:09 20.0 13.9 68 1016.8 9.8 S 12.1 0.0 0.0
19:10 20.0 13.9 68 1016.9 9.2 S 10.7 0.0 0.0
19:11 20.0 13.9 68 1017.0 10.7 S 10.7 0.0 0.0
19:13 19.9 13.8 68 1016.9 9.8 SE 10.7 0.0 0.0
19:14 19.8 14.0 69 1016.9 9.2 SE 10.7 0.0 0.0
19:15 19.7 13.9 69 1016.9 10.7 SW 10.7 0.0 0.0
19:16 19.7 13.9 69 1016.9 9.8 SW 10.7 0.0 0.0
19:17 19.7 13.9 69 1016.8 9.2 S 10.7 0.0 0.0
19:18 19.6 13.8 69 1017.0 8.3 SW 11.4 0.0 0.0
19:19 19.6 14.0 70 1017.1 11.4 S 11.4 0.0 0.0
19:20 19.5 13.9 70 1017.0 7.6 S 11.4 0.0 0.0
19:21 19.5 13.9 70 1016.9 9.2 SE 11.4 0.0 0.0
19:22 19.4 13.8 70 1016.9 9.2 SW 11.4 0.0 0.0
19:23 19.4 13.8 70 1016.9 9.2 SW 11.4 0.0 0.0
19:24 19.4 13.8 70 1017.0 9.8 SW 11.4 0.0 0.0
19:25 19.4 13.8 70 1016.9 11.4 SW 11.4 0.0 0.0
19:26 19.3 13.9 71 1016.9 9.8 SW 11.4 0.0 0.0
19:27 19.3 13.9 71 1017.0 8.3 SE 11.4 0.0 0.0
19:28 19.3 13.9 71 1016.9 7.6 SW 11.4 0.0 0.0
19:29 19.2 13.8 71 1017.0 9.2 S 11.4 0.0 0.0
19:30 19.2 13.8 71 1017.1 9.2 S 11.4 0.0 0.0
19:32 19.2 13.8 71 1017.0 13.6 S 13.6 0.0 0.0
19:33 19.1 13.7 71 1017.1 8.3 SW 13.6 0.0 0.0
19:34 19.1 13.9 72 1016.9 9.2 SW 13.6 0.0 0.0
19:35 19.1 13.9 72 1016.9 7.6 S 13.6 0.0 0.0
19:36 19.1 13.9 72 1016.9 10.7 SW 13.6 0.0 0.0
19:37 19.1 13.9 72 1016.9 10.7 S 13.6 0.0 0.0
19:38 19.0 13.8 72 1016.9 6.9 WSW 13.6 0.0 0.0
19:39 19.0 13.8 72 1017.0 10.7 SW 13.6 0.0 0.0
19:40 19.0 13.8 72 1016.9 9.8 S 13.6 0.0 0.0
19:41 19.0 13.8 72 1016.9 8.3 S 13.6 0.0 0.0
19:42 19.0 14.1 73 1016.8 6.0 SSW 10.7 0.0 0.0
19:43 19.0 14.1 73 1016.8 6.0 SSW 10.7 0.0 0.0
19:44 19.0 14.1 73 1017.1 10.7 S 10.7 0.0 0.0
19:45 18.9 14.0 73 1016.9 7.6 SW 10.7 0.0 0.0
19:46 18.9 14.0 73 1016.9 10.7 S 10.7 0.0 0.0
19:47 18.9 14.0 73 1016.9 11.4 W 11.4 0.0 0.0
19:48 18.9 14.0 73 1016.8 11.4 S 11.4 0.0 0.0
19:49 18.9 14.0 73 1016.8 8.3 S 11.4 0.0 0.0
19:50 18.9 14.0 73 1016.9 9.2 SW 11.4 0.0 0.0
19:52 18.8 13.9 73 1017.0 9.8 SE 11.4 0.0 0.0
19:53 18.8 13.9 73 1016.9 9.8 S 11.4 0.0 0.0
19:54 18.8 14.1 74 1016.9 9.2 S 11.4 0.0 0.0
19:55 18.8 14.1 74 1016.8 9.2 S 11.4 0.0 0.0
19:56 18.8 14.1 74 1016.9 7.6 S 11.4 0.0 0.0
19:57 18.8 14.1 74 1016.8 6.9 S 11.4 0.0 0.0
19:58 18.7 14.0 74 1016.9 9.2 SW 10.7 0.0 0.0
19:59 18.7 14.0 74 1017.0 9.8 S 10.7 0.0 0.0
20:00 18.7 14.0 74 1016.9 7.6 S 10.7 0.0 0.0
20:01 18.7 14.0 74 1016.9 6.0 S 10.7 0.0 0.0
20:02 18.7 14.0 74 1016.8 9.8 SW 10.7 0.0 0.0
20:03 18.7 14.0 74 1016.8 9.8 SW 10.7 0.0 0.0
20:04 18.7 14.0 74 1016.9 9.8 SW 10.7 0.0 0.0
20:05 18.7 14.0 74 1016.9 9.2 S 9.8 0.0 0.0
20:06 18.7 14.0 74 1016.9 10.7 S 10.7 0.0 0.0
20:07 18.7 14.0 74 1016.9 9.2 S 10.7 0.0 0.0
20:08 18.6 13.9 74 1017.0 10.7 SW 10.7 0.0 0.0
20:09 18.6 13.9 74 1016.9 9.8 S 10.7 0.0 0.0
20:11 18.6 13.9 74 1017.0 9.8 SW 10.7 0.0 0.0
20:12 18.6 13.9 74 1016.9 9.2 SW 10.7 0.0 0.0
20:13 18.5 13.8 74 1016.8 9.2 SW 10.7 0.0 0.0
20:14 18.5 13.8 74 1016.9 10.7 S 10.7 0.0 0.0
20:15 18.5 13.8 74 1016.9 9.8 WNW 10.7 0.0 0.0
20:16 18.5 13.8 74 1017.0 9.8 S 10.7 0.0 0.0
20:17 18.5 13.8 74 1016.8 11.4 S 11.4 0.0 0.0
20:18 18.4 13.7 74 1017.0 10.7 S 11.4 0.0 0.0
20:19 18.4 13.9 75 1016.8 9.8 S 11.4 0.0 0.0
20:20 18.4 13.9 75 1017.0 9.8 S 11.4 0.0 0.0
20:21 18.4 13.9 75 1016.9 10.7 S 11.4 0.0 0.0
20:22 18.4 13.9 75 1016.9 9.2 S 11.4 0.0 0.0
20:23 18.4 13.9 75 1016.9 6.9 WSW 11.4 0.0 0.0
20:24 18.4 13.9 75 1017.0 9.8 SW 11.4 0.0 0.0
20:25 18.3 13.8 75 1016.9 7.6 SSW 11.4 0.0 0.0
20:26 18.3 13.8 75 1016.8 6.9 WSW 11.4 0.0 0.0
20:27 18.3 13.8 75 1017.0 7.6 S 11.4 0.0 0.0
20:29 18.3 13.8 75 1017.1 6.9 WSW 10.7 0.0 0.0
20:30 18.3 13.8 75 1016.9 9.2 SW 10.7 0.0 0.0
20:31 18.3 13.8 75 1017.1 7.6 S 9.8 0.0 0.0
20:32 18.3 13.8 75 1016.9 6.9 SW 9.8 0.0 0.0
20:33 18.3 13.8 75 1017.2 7.6 S 9.8 0.0 0.0
20:34 18.2 13.7 75 1017.0 5.4 S 9.8 0.0 0.0
20:35 18.2 13.7 75 1017.1 9.2 SSW 9.8 0.0 0.0
20:36 18.2 13.7 75 1016.8 7.6 SW 9.8 0.0 0.0
20:37 18.2 13.9 76 1017.1 6.9 SW 9.8 0.0 0.0
20:38 18.2 13.9 76 1017.0 6.0 SE 9.8 0.0 0.0
20:39 18.2 13.9 76 1017.0 6.0 SE 9.8 0.0 0.0
20:40 18.2 13.9 76 1017.2 6.9 S 9.8 0.0 0.0
20:41 18.1 13.8 76 1016.9 7.6 S 9.2 0.0 0.0
20:42 18.1 13.8 76 1016.8 7.6 S 9.2 0.0 0.0
20:43 18.1 13.8 76 1016.9 9.8 SW 9.8 0.0 0.0
20:44 18.0 13.7 76 1017.2 8.3 S 9.8 0.0 0.0
20:45 18.0 13.7 76 1017.1 6.9 S 9.8 0.0 0.0
20:46 18.0 13.7 76 1017.2 4.5 S 9.8 0.0 0.0
20:48 18.0 13.7 76 1017.2 6.9 S 9.8 0.0 0.0
20:49 18.0 13.7 76 1017.0 6.0 S 9.8 0.0 0.0
20:50 17.9 13.6 76 1017.1 6.9 S 9.8 0.0 0.0
20:51 17.9 13.8 77 1016.9 4.5 SE 9.8 0.0 0.0
20:52 17.9 13.6 76 1017.0 5.4 SE 9.8 0.0 0.0
20:53 17.9 13.8 77 1017.0 6.9 S 9.2 0.0 0.0
20:54 17.9 13.8 77 1017.0 6.0 S 9.2 0.0 0.0
20:55 17.8 13.7 77 1017.0 6.9 SW 9.2 0.0 0.0
20:56 17.8 13.7 77 1017.2 6.9 S 9.2 0.0 0.0
20:57 17.8 13.7 77 1016.9 7.6 S 9.2 0.0 0.0
20:58 17.8 13.7 77 1017.0 6.0 SW 9.2 0.0 0.0
20:59 17.8 13.7 77 1017.1 6.0 SW 9.2 0.0 0.0
21:00 17.8 13.7 77 1017.3 5.4 S 9.2 0.0 0.0
21:01 17.7 13.6 77 1017.0 6.9 SW 7.6 0.0 0.0
21:02 17.7 13.6 77 1017.1 6.0 S 7.6 0.0 0.0
21:03 17.7 13.6 77 1017.0 6.0 S 7.6 0.0 0.0
21:04 17.7 13.8 78 1017.1 4.5 SW 7.6 0.0 0.0
21:05 17.7 13.6 77 1016.9 3.8 S 7.6 0.0 0.0
21:07 17.6 13.7 78 1017.0 6.0 SE 7.6 0.0 0.0
21:09 17.6 13.7 78 1017.0 4.5 S 6.9 0.0 0.0
21:10 17.6 13.7 78 1017.0 6.0 SW 6.9 0.0 0.0
21:11 17.6 13.7 78 1017.0 7.6 S 7.6 0.0 0.0
21:13 17.5 13.6 78 1017.0 5.4 S 7.6 0.0 0.0
21:14 17.5 13.8 79 1017.1 6.0 S 7.6 0.0 0.0
21:15 17.5 13.8 79 1017.1 5.4 SW 7.6 0.0 0.0
21:16 17.5 13.8 79 1017.0 6.0 SW 7.6 0.0 0.0
21:17 17.5 13.8 79 1017.2 5.4 W 7.6 0.0 0.0
21:18 17.5 13.8 79 1017.0 4.5 SW 7.6 0.0 0.0
21:19 17.5 13.8 79 1017.0 4.5 SW 7.6 0.0 0.0
21:20 17.4 13.7 79 1017.2 4.5 SW 7.6 0.0 0.0
21:21 17.4 13.7 79 1017.1 4.5 S 6.0 0.0 0.0
21:22 17.4 13.7 79 1017.2 5.4 SW 6.0 0.0 0.0
21:23 17.4 13.7 79 1017.1 4.5 S 6.0 0.0 0.0
21:24 17.4 13.7 79 1017.1 3.8 S 6.0 0.0 0.0
21:25 17.3 13.6 79 1017.2 3.8 S 6.0 0.0 0.0
21:26 17.3 13.6 79 1017.0 3.8 SSE 6.0 0.0 0.0
21:27 17.3 13.6 79 1017.0 3.1 SW 5.4 0.0 0.0
21:28 17.3 13.6 79 1017.2 3.1 S 5.4 0.0 0.0
21:29 17.3 13.8 80 1017.1 3.8 WSW 5.4 0.0 0.0
21:30 17.2 13.5 79 1017.2 3.8 S 5.4 0.0 0.0
21:31 17.2 13.7 80 1017.2 3.8 SW 5.4 0.0 0.0
21:32 17.2 13.7 80 1017.2 3.1 W 5.4 0.0 0.0
21:33 17.2 13.7 80 1016.9 3.1 S 4.5 0.0 0.0
21:34 17.1 13.6 80 1017.1 3.1 SW 4.5 0.0 0.0
21:35 17.1 13.6 80 1017.0 2.2 S 4.5 0.0 0.0
21:36 17.1 13.6 80 1017.0 3.1 SW 4.5 0.0 0.0
21:37 17.1 13.6 80 1017.1 3.8 SW 4.5 0.0 0.0
21:38 17.0 13.5 80 1017.1 3.1 S 4.5 0.0 0.0
21:39 17.0 13.5 80 1017.1 3.1 SW 4.5 0.0 0.0
21:40 17.0 13.5 80 1017.1 4.5 SW 4.5 0.0 0.0
21:41 17.0 13.5 80 1017.2 3.8 SW 4.5 0.0 0.0
21:42 17.0 13.5 80 1017.0 3.1 WSW 4.5 0.0 0.0
21:43 16.9 13.4 80 1017.1 2.2 S 4.5 0.0 0.0
21:44 16.9 13.4 80 1017.1 2.2 SW 4.5 0.0 0.0
21:45 16.9 13.4 80 1017.2 2.2 S 4.5 0.0 0.0
21:46 16.9 13.4 80 1017.1 2.2 SW 4.5 0.0 0.0
21:47 16.9 13.4 80 1017.2 1.6 N 4.5 0.0 0.0
21:48 16.8 13.5 81 1017.3 0.7 S 4.5 0.0 0.0
21:49 16.8 13.5 81 1017.2 2.2 SW 4.5 0.0 0.0
21:50 16.8 13.5 81 1017.2 1.6 S 4.5 0.0 0.0
21:51 16.8 13.5 81 1017.2 1.6 SE 3.1 0.0 0.0
21:52 16.7 13.4 81 1017.3 2.2 S 2.2 0.0 0.0
21:53 16.7 13.4 81 1017.1 2.2 S 2.2 0.0 0.0
21:54 16.7 13.4 81 1017.3 1.6 SE 2.2 0.0 0.0
21:55 16.7 13.4 81 1017.2 2.2 S 2.2 0.0 0.0
21:56 16.7 13.4 81 1017.3 2.2 SW 2.2 0.0 0.0
21:57 16.7 13.4 81 1017.2 3.1 S 3.1 0.0 0.0
21:58 16.7 13.4 81 1017.2 2.2 SE 3.1 0.0 0.0
21:59 16.7 13.4 81 1017.4 2.2 SE 3.1 0.0 0.0
22:00 16.7 13.4 81 1017.3 1.6 SE 3.1 0.0 0.0
22:01 16.6 13.3 81 1017.3 1.6 SE 3.1 0.0 0.0
22:02 16.7 13.4 81 1017.2 2.2 S 3.1 0.0 0.0
22:03 16.6 13.5 82 1017.1 3.1 S 3.1 0.0 0.0
22:04 16.6 13.5 82 1017.2 3.1 S 3.1 0.0 0.0
22:05 16.6 13.5 82 1017.2 2.2 S 3.1 0.0 0.0
22:06 16.6 13.5 82 1017.3 2.2 S 3.1 0.0 0.0
22:07 16.6 13.5 82 1017.3 1.6 S 3.1 0.0 0.0
22:08 16.6 13.5 82 1017.3 3.1 S 3.1 0.0 0.0
22:09 16.6 13.5 82 1017.4 1.6 S 3.1 0.0 0.0
22:11 16.6 13.5 82 1017.2 3.1 SW 3.1 0.0 0.0
22:12 16.6 13.5 82 1017.2 2.2 SE 3.1 0.0 0.0
22:13 16.5 13.4 82 1017.3 3.1 S 3.1 0.0 0.0
22:14 16.5 13.4 82 1017.3 1.6 S 3.1 0.0 0.0
22:15 16.5 13.4 82 1017.2 2.2 S 3.1 0.0 0.0
22:16 16.5 13.4 82 1017.2 3.1 SW 3.1 0.0 0.0
22:17 16.5 13.6 83 1017.3 2.2 S 3.1 0.0 0.0
22:18 16.5 13.6 83 1017.3 2.2 S 3.1 0.0 0.0
22:19 16.5 13.6 83 1017.2 3.8 S 3.8 0.0 0.0
22:20 16.5 13.6 83 1017.1 3.1 SW 3.8 0.0 0.0
22:21 16.5 13.6 83 1017.1 2.2 S 3.8 0.0 0.0
22:22 16.5 13.6 83 1017.1 2.2 S 3.8 0.0 0.0
22:23 16.5 13.6 83 1017.1 2.2 SW 3.8 0.0 0.0
22:24 16.5 13.6 83 1017.0 2.2 SW 3.8 0.0 0.0
22:25 16.5 13.6 83 1017.0 2.2 SW 3.8 0.0 0.0
22:26 16.5 13.6 83 1017.2 2.2 SE 3.8 0.0 0.0
22:27 16.5 13.6 83 1017.2 3.1 S 3.8 0.0 0.0
22:28 16.5 13.6 83 1017.0 3.8 SW 3.8 0.0 0.0
22:29 16.5 13.6 83 1017.2 2.2 S 3.8 0.0 0.0
22:30 16.5 13.6 83 1017.1 3.8 SSW 3.8 0.0 0.0
22:31 16.5 13.6 83 1017.1 3.1 SW 3.8 0.0 0.0
22:33 16.5 13.6 83 1017.2 3.8 SW 3.8 0.0 0.0
22:34 16.5 13.6 83 1017.0 2.2 SW 3.8 0.0 0.0
22:35 16.4 13.7 84 1017.2 3.1 S 3.8 0.0 0.0
22:36 16.4 13.7 84 1017.0 3.1 SE 3.8 0.0 0.0
22:37 16.4 13.7 84 1017.0 3.8 S 3.8 0.0 0.0
22:38 16.4 13.7 84 1017.1 3.1 SW 3.8 0.0 0.0
22:39 16.5 13.8 84 1017.1 3.1 SW 3.8 0.0 0.0
22:40 16.5 13.8 84 1017.2 2.2 SW 3.8 0.0 0.0
22:41 16.5 13.8 84 1017.1 3.8 S 3.8 0.0 0.0
22:42 16.5 13.8 84 1017.1 3.1 SW 3.8 0.0 0.0
22:43 16.5 13.8 84 1017.0 2.2 SW 3.8 0.0 0.0
22:44 16.5 13.8 84 1017.1 2.2 S 3.8 0.0 0.0
22:45 16.5 13.8 84 1016.9 2.2 SW 3.8 0.0 0.0
22:46 16.5 13.8 84 1017.0 1.6 W 3.8 0.0 0.0
22:47 16.5 13.8 84 1017.0 1.6 NW 3.8 0.0 0.0
22:48 16.5 13.8 84 1016.9 3.1 S 3.8 0.0 0.0
22:49 16.5 13.8 84 1017.0 2.2 SW 3.8 0.0 0.0
22:50 16.5 13.8 84 1016.9 3.1 S 3.8 0.0 0.0
22:51 16.5 14.0 85 1016.9 4.5 SW 4.5 0.0 0.0
22:52 16.5 14.0 85 1016.8 4.5 SW 4.5 0.0 0.0
22:53 16.6 14.1 85 1017.1 3.1 SW 4.5 0.0 0.0
22:54 16.5 14.0 85 1017.0 3.1 S 4.5 0.0 0.0
22:55 16.6 14.1 85 1016.9 3.1 SW 4.5 0.0 0.0
22:56 16.6 14.1 85 1017.0 2.2 SW 4.5 0.0 0.0
22:57 16.6 14.1 85 1017.0 2.2 S 4.5 0.0 0.0
22:58 16.6 14.1 85 1017.0 2.2 SW 4.5 0.0 0.0
22:59 16.6 14.1 85 1016.9 1.6 S 4.5 0.0 0.0
23:01 16.6 14.1 85 1017.1 1.6 SW 4.5 0.0 0.0
23:02 16.6 14.1 85 1017.0 2.2 S 3.8 0.0 0.0
23:03 16.6 14.1 85 1017.0 1.6 S 3.1 0.0 0.0
23:04 16.6 14.1 85 1016.8 1.6 S 3.1 0.0 0.0
23:05 16.6 14.1 85 1016.8 1.6 S 2.2 0.0 0.0
23:06 16.6 14.1 85 1016.8 1.6 S 2.2 0.0 0.0
23:07 16.6 14.1 85 1016.9 1.6 S 2.2 0.0 0.0
23:08 16.6 14.1 85 1016.8 2.2 S 2.2 0.0 0.0
23:09 16.6 14.1 85 1016.9 1.6 S 2.2 0.0 0.0
23:10 16.6 14.1 85 1016.8 1.6 S 2.2 0.0 0.0
23:11 16.6 14.1 85 1016.7 1.6 NE 2.2 0.0 0.0
23:12 16.6 14.1 85 1016.8 0.7 NE 2.2 0.0 0.0
23:13 16.5 14.0 85 1016.9 0.7 NE 2.2 0.0 0.0
23:14 16.5 14.0 85 1016.8 0.7 SW 2.2 0.0 0.0
23:15 16.5 14.0 85 1016.8 0.7 SW 2.2 0.0 0.0
23:16 16.5 14.0 85 1016.8 0.7 SW 2.2 0.0 0.0
23:17 16.5 14.0 85 1016.8 0.7 SW 2.2 0.0 0.0
23:18 16.5 14.0 85 1016.7 1.6 S 2.2 0.0 0.0
23:19 16.5 14.0 85 1016.8 0.0 S 1.6 0.0 0.0
23:20 16.5 14.0 85 1016.8 0.0 SE 1.6 0.0 0.0
23:21 16.5 14.0 85 1016.9 0.0 SE 1.6 0.0 0.0
23:22 16.5 14.0 85 1016.8 0.0 SE 1.6 0.0 0.0
23:23 16.5 14.0 85 1016.8 0.0 S 1.6 0.0 0.0
23:24 16.5 14.0 85 1016.9 0.0 SE 1.6 0.0 0.0
23:25 16.5 14.0 85 1016.8 0.0 SE 1.6 0.0 0.0
23:26 16.5 14.0 85 1016.9 0.0 SE 1.6 0.0 0.0
23:27 16.5 14.0 85 1016.8 0.0 SE 1.6 0.0 0.0
23:28 16.5 14.0 85 1016.8 0.0 SE 1.6 0.0 0.0
23:29 16.5 14.0 85 1016.8 0.0 SE 0.0 0.0 0.0
23:30 16.5 14.0 85 1016.8 0.0 SE 0.0 0.0 0.0
23:31 16.5 14.2 86 1016.8 0.0 SE 0.0 0.0 0.0
23:32 16.5 14.2 86 1016.7 0.0 SE 0.0 0.0 0.0
23:33 16.5 14.2 86 1016.9 0.0 SE 0.0 0.0 0.0
23:34 16.5 14.2 86 1016.8 0.0 S 0.0 0.0 0.0
23:35 16.5 14.2 86 1016.8 0.0 SE 0.0 0.0 0.0
23:36 16.5 14.2 86 1016.8 0.0 SE 0.0 0.0 0.0
23:37 16.5 14.2 86 1016.7 0.0 SE 0.0 0.0 0.0
23:38 16.5 14.2 86 1016.8 0.0 SE 0.0 0.0 0.0
23:40 16.5 14.2 86 1016.7 0.0 SE 0.0 0.0 0.0
23:41 16.4 14.1 86 1016.7 0.0 S 0.0 0.0 0.0
23:42 16.4 14.1 86 1016.7 0.0 SE 0.0 0.0 0.0
23:43 16.4 14.1 86 1016.7 0.0 SE 0.0 0.0 0.0
23:44 16.4 14.1 86 1016.8 0.0 S 0.0 0.0 0.0
23:45 16.4 14.1 86 1016.7 0.0 SSE 0.0 0.0 0.0
23:46 16.4 14.1 86 1016.8 0.0 S 0.0 0.0 0.0
23:47 16.4 14.1 86 1016.8 0.0 S 0.0 0.0 0.0
23:48 16.4 14.1 86 1016.8 0.0 S 0.0 0.0 0.0
23:49 16.4 14.1 86 1016.8 0.0 S 0.0 0.0 0.0
23:50 16.4 14.1 86 1016.8 0.0 SE 0.0 0.0 0.0
23:51 16.4 14.1 86 1016.8 0.0 SE 0.0 0.0 0.0
23:52 16.4 14.1 86 1016.8 0.0 S 0.0 0.0 0.0
23:53 16.4 14.1 86 1016.8 0.0 S 0.0 0.0 0.0
23:54 16.4 14.1 86 1016.8 0.0 S 0.0 0.0 0.0
23:55 16.4 14.1 86 1016.8 0.0 S 0.0 0.0 0.0
23:56 16.4 14.1 86 1016.8 0.0 S 0.0 0.0 0.0
23:57 16.4 14.1 86 1016.8 0.0 S 0.0 0.0 0.0
23:58 16.4 14.1 86 1016.8 0.0 SW 0.0 0.0 0.0
23:59 16.4 14.2 87 1016.7 0.0 SW 0.0 0.0 0.0

UK - WEATHER STATION TOPSITES - UK World Weather Websites

This is a private weather station, never base important decisions or events on data from this weather station. Although every effort has been made to make the data as accurate as possible it does not meet MetOffice standards. It is proved as a guide of local weather conditions. We accept no liability for any loss which may arise from use of the data.

Copyright © Carnkie Weather 2009 - 2018.